NW0017 Weather Reports


time (UTC)temp
F
wind
direction
speed
knots
gust
knots
rain 1hr
in
rain 24hr
in
rain mn
in
humidity
%
barometer
mb
20260509163755 81 178 0.0 0.0 0.00 0.00 0.00 99 1007.5
20260509163655 81 178 0.0 0.0 0.00 0.00 0.00 99 1007.5
20260509163555 81 178 0.0 0.0 0.00 0.00 0.00 99 1007.5
20260509163455 81 178 0.0 0.0 0.00 0.00 0.00 99 1007.5
20260509163355 81 178 0.0 0.0 0.00 0.00 0.00 99 1007.6
20260509163255 81 178 0.0 0.0 0.00 0.00 0.00 99 1007.6
20260509163155 81 178 0.0 0.0 0.00 0.00 0.00 99 1007.6
20260509163057 81 178 0.0 0.0 0.00 0.00 0.00 99 1007.6
20260509162955 81 178 0.0 0.0 0.00 0.00 0.00 99 1007.6
20260509162855 81 178 0.0 0.0 0.00 0.00 0.00 99 1007.6
20260509162755 81 178 0.0 0.0 0.00 0.00 0.00 99 1007.6
20260509162655 81 178 0.0 0.0 0.00 0.00 0.00 99 1007.6
20260509162555 81 178 0.0 0.0 0.00 0.00 0.00 99 1007.6
20260509162455 81 178 0.0 0.0 0.00 0.00 0.00 99 1007.6
20260509162355 81 178 0.0 0.0 0.00 0.00 0.00 99 1007.6
20260509162255 81 178 0.0 0.0 0.00 0.00 0.00 99 1007.7
20260509162155 81 178 0.0 0.0 0.00 0.00 0.00 99 1007.7
20260509162055 81 181 0.0 0.0 0.00 0.00 0.00 99 1007.7
20260509161955 81 181 0.0 0.0 0.00 0.00 0.00 99 1007.7
20260509161855 81 181 0.0 0.0 0.00 0.00 0.00 99 1007.7
20260509161755 81 181 0.0 0.0 0.00 0.00 0.00 99 1007.7
20260509161655 81 181 0.0 0.0 0.00 0.00 0.00 99 1007.7
20260509161555 81 181 0.0 0.0 0.00 0.00 0.00 99 1007.7
20260509161455 81 181 0.0 0.0 0.00 0.00 0.00 99 1007.7
20260509161355 81 181 0.0 0.0 0.00 0.00 0.00 99 1007.7
20260509161255 81 179 0.0 0.0 0.00 0.00 0.00 99 1007.7
20260509161155 81 179 0.0 0.0 0.00 0.00 0.00 99 1007.7
20260509161055 81 179 0.0 0.0 0.00 0.00 0.00 99 1007.7
20260509160955 81 179 0.0 0.0 0.00 0.00 0.00 99 1007.7
20260509160855 81 179 0.0 0.0 0.00 0.00 0.00 99 1007.7
20260509160755 81 156 0.0 0.0 0.00 0.00 0.00 99 1007.7
20260509160655 81 156 0.0 0.0 0.00 0.00 0.00 99 1007.7
20260509160555 81 156 0.0 0.0 0.00 0.00 0.00 99 1007.7
20260509160455 81 156 0.0 0.0 0.00 0.00 0.00 99 1007.7
20260509160355 81 156 0.0 0.0 0.00 0.00 0.00 99 1007.7
20260509160255 81 156 0.0 0.0 0.00 0.00 0.00 99 1007.7
20260509160155 81 156 0.0 0.0 0.00 0.00 0.00 99 1007.7
20260509160101 81 157 0.0 0.0 0.00 0.00 0.00 99 1007.7
20260509155956 81 158 0.0 0.0 0.00 0.00 0.00 99 1007.7
20260509155855 81 158 0.0 0.0 0.00 0.00 0.00 99 1007.7
20260509155755 81 158 0.0 0.0 0.00 0.00 0.00 99 1007.7
20260509155655 81 158 0.0 0.0 0.00 0.00 0.00 99 1007.7
20260509155555 81 158 0.0 0.0 0.00 0.00 0.00 99 1007.7
20260509155455 81 158 0.0 0.0 0.00 0.00 0.00 99 1007.7
20260509155355 81 158 0.0 0.0 0.00 0.00 0.00 99 1007.7
20260509155255 81 158 0.0 0.0 0.00 0.00 0.00 99 1007.7
20260509155155 81 158 0.0 0.0 0.00 0.00 0.00 99 1007.7
20260509155055 81 158 0.0 0.0 0.00 0.00 0.00 99 1007.7
20260509154955 81 158 0.0 0.0 0.00 0.00 0.00 99 1007.8
20260509154855 81 158 0.0 0.0 0.00 0.00 0.00 99 1007.8
20260509154755 81 158 0.0 0.0 0.00 0.00 0.00 99 1007.8
20260509154655 81 158 0.0 0.0 0.00 0.00 0.00 99 1007.8
20260509154555 81 158 0.0 0.0 0.00 0.00 0.00 99 1007.8
20260509154455 81 158 0.0 0.0 0.00 0.00 0.00 99 1007.8
20260509154355 81 158 0.0 0.0 0.00 0.00 0.00 99 1007.8
20260509154255 81 158 0.0 0.0 0.00 0.00 0.00 99 1007.8
20260509154155 81 158 0.0 0.0 0.00 0.00 0.00 99 1007.8
20260509154055 81 158 0.0 0.0 0.00 0.00 0.00 99 1007.8
20260509153955 81 158 0.0 0.0 0.00 0.00 0.00 99 1007.8
20260509153855 81 158 0.0 0.0 0.00 0.00 0.00 99 1007.9
20260509153755 81 158 0.0 0.0 0.00 0.00 0.00 99 1007.9
20260509153655 81 158 0.0 0.0 0.00 0.00 0.00 99 1007.9
20260509153555 81 158 0.0 0.0 0.00 0.00 0.00 99 1007.9
20260509153455 81 158 0.0 1.7 0.00 0.00 0.00 99 1007.9
20260509153355 81 158 0.0 0.9 0.00 0.00 0.00 99 1007.9
20260509153255 81 158 0.9 0.9 0.00 0.00 0.00 99 1007.9
20260509153155 81 158 0.9 0.0 0.00 0.00 0.00 99 1007.9
20260509153055 81 146 0.0 0.9 0.00 0.00 0.00 99 1007.9
20260509152955 81 146 0.9 1.7 0.00 0.00 0.00 99 1007.9
20260509152855 81 146 1.7 1.7 0.00 0.00 0.00 99 1007.9
20260509152755 81 145 1.7 1.7 0.00 0.00 0.00 99 1007.9
20260509152655 81 144 1.7 1.7 0.00 0.00 0.00 99 1007.8
20260509152555 81 144 1.7 1.7 0.00 0.00 0.00 99 1007.8
20260509152455 81 136 1.7 0.9 0.00 0.00 0.00 99 1007.8
20260509152355 81 132 2.6 1.7 0.00 0.00 0.00 99 1007.8
20260509152255 81 134 1.7 0.9 0.00 0.00 0.00 99 1007.8
20260509152155 81 133 0.9 0.9 0.00 0.00 0.00 99 1007.8
20260509152055 81 122 0.9 1.7 0.00 0.00 0.00 99 1007.8
20260509152000 81 122 1.7 1.7 0.00 0.00 0.00 99 1007.8
20260509151855 81 125 1.7 1.7 0.00 0.00 0.00 99 1007.8
20260509151755 81 127 1.7 1.7 0.00 0.00 0.00 99 1007.8
20260509151654 81 127 1.7 0.9 0.00 0.00 0.00 99 1007.8
20260509151555 81 153 0.9 0.0 0.00 0.00 0.00 99 1007.8
20260509151455 82 153 0.0 0.9 0.00 0.00 0.00 99 1007.8
20260509151354 82 162 0.0 0.0 0.00 0.00 0.00 99 1007.8
20260509151254 82 162 0.0 0.9 0.00 0.00 0.00 99 1007.8
20260509151155 82 162 0.9 0.0 0.00 0.00 0.00 99 1007.8
20260509151055 82 162 0.0 0.9 0.00 0.00 0.00 99 1007.8
20260509150955 82 162 0.9 0.0 0.00 0.00 0.00 99 1007.8
20260509150855 82 171 0.0 1.7 0.00 0.00 0.00 99 1007.8
20260509150754 82 171 1.7 0.9 0.00 0.00 0.00 99 1007.8
20260509150654 82 168 0.9 0.0 0.00 0.00 0.00 99 1007.8
20260509150554 82 161 0.0 0.0 0.00 0.00 0.00 99 1007.8
20260509150454 82 161 0.0 0.9 0.00 0.00 0.00 99 1007.8
20260509150354 82 161 1.7 0.0 0.00 0.00 0.00 99 1007.8
20260509150254 82 167 0.0 0.0 0.00 0.00 0.00 99 1007.8
20260509150155 82 167 0.0 0.0 0.00 0.00 0.00 99 1007.8
20260509150054 82 167 0.0 0.0 0.00 0.00 0.00 99 1007.8
20260509145954 82 167 0.0 0.9 0.00 0.00 0.00 99 1007.8
20260509145854 82 167 0.9 1.7 0.00 0.00 0.00 99 1007.8
20260509145754 82 167 1.7 1.7 0.00 0.00 0.00 99 1007.8
20260509145654 82 167 1.7 0.9 0.00 0.00 0.00 99 1007.8
20260509145554 82 168 0.9 0.0 0.00 0.00 0.00 99 1007.8
20260509145454 82 165 0.0 1.7 0.00 0.00 0.00 99 1007.8
20260509145354 82 134 0.9 0.9 0.00 0.00 0.00 99 1007.8
20260509145254 82 134 0.9 0.9 0.00 0.00 0.00 99 1007.7
20260509145154 82 134 0.9 1.7 0.00 0.00 0.00 99 1007.7
20260509145054 82 134 1.7 1.7 0.00 0.00 0.00 99 1007.7
20260509144954 82 130 1.7 1.7 0.00 0.00 0.00 99 1007.7
20260509144854 82 130 1.7 1.7 0.00 0.00 0.00 99 1007.7
20260509144754 82 132 1.7 1.7 0.00 0.00 0.00 99 1007.7
20260509144654 82 123 1.7 1.7 0.00 0.00 0.00 99 1007.7
20260509144558 82 120 1.7 1.7 0.00 0.00 0.00 99 1007.7
20260509144454 82 131 1.7 1.7 0.00 0.00 0.00 99 1007.6
20260509144354 82 131 1.7 1.7 0.00 0.00 0.00 99 1007.6
20260509144254 82 131 1.7 1.7 0.00 0.00 0.00 99 1007.6
20260509144154 82 135 1.7 1.7 0.00 0.00 0.00 99 1007.6
20260509144054 82 131 1.7 1.7 0.00 0.00 0.00 99 1007.6
20260509143954 82 129 1.7 0.9 0.00 0.00 0.00 99 1007.6
20260509143854 82 128 0.9 1.7 0.00 0.00 0.00 99 1007.6
20260509143754 82 128 1.7 1.7 0.00 0.00 0.00 99 1007.6
20260509143654 82 128 1.7 1.7 0.00 0.00 0.00 99 1007.6
20260509143554 82 124 1.7 1.7 0.00 0.00 0.00 99 1007.6
20260509143454 82 117 1.7 1.7 0.00 0.00 0.00 99 1007.6
20260509143354 82 117 2.6 1.7 0.00 0.00 0.00 99 1007.5
20260509143254 82 119 1.7 1.7 0.00 0.00 0.00 99 1007.5
20260509143154 82 120 1.7 1.7 0.00 0.00 0.00 99 1007.5
20260509143054 82 122 1.7 1.7 0.00 0.00 0.00 99 1007.5
20260509142954 82 128 1.7 1.7 0.00 0.00 0.00 99 1007.5
20260509142854 82 121 1.7 1.7 0.00 0.00 0.00 99 1007.5
20260509142754 82 125 1.7 0.9 0.00 0.00 0.00 99 1007.5
20260509142654 82 133 0.9 1.7 0.00 0.00 0.00 99 1007.5
20260509142554 82 140 1.7 0.9 0.00 0.00 0.00 99 1007.4
20260509142454 82 140 0.9 0.9 0.00 0.00 0.00 99 1007.4
20260509142354 82 140 0.9 1.7 0.00 0.00 0.00 99 1007.4
20260509142254 82 139 1.7 1.7 0.00 0.00 0.00 99 1007.4
20260509142154 82 140 1.7 0.9 0.00 0.00 0.00 99 1007.4
20260509142054 82 140 0.9 1.7 0.00 0.00 0.00 99 1007.4
20260509141954 82 140 1.7 0.9 0.00 0.00 0.00 99 1007.4
20260509141854 82 125 0.9 0.0 0.00 0.00 0.00 99 1007.4
20260509141754 82 131 0.0 0.0 0.00 0.00 0.00 99 1007.4
20260509141654 82 130 0.0 0.0 0.00 0.00 0.00 99 1007.3
20260509141554 82 130 0.0 0.0 0.00 0.00 0.00 99 1007.3
20260509141454 82 130 0.0 0.0 0.00 0.00 0.00 99 1007.3
20260509141354 82 138 0.0 0.0 0.00 0.00 0.00 98 1007.3
20260509141254 82 138 0.0 0.0 0.00 0.00 0.00 98 1007.3
20260509141154 82 138 0.0 0.0 0.00 0.00 0.00 98 1007.3
20260509141054 82 138 0.0 0.0 0.00 0.00 0.00 98 1007.3
20260509140954 82 138 0.0 0.0 0.00 0.00 0.00 98 1007.2
20260509140854 82 138 0.0 0.0 0.00 0.00 0.00 98 1007.2
20260509140754 82 138 0.0 0.0 0.00 0.00 0.00 98 1007.2
20260509140654 82 146 0.0 0.0 0.00 0.00 0.00 98 1007.2
20260509140554 82 149 0.0 0.0 0.00 0.00 0.00 98 1007.2
20260509140454 82 149 0.0 0.0 0.00 0.00 0.00 97 1007.1
20260509140354 82 149 0.0 0.0 0.00 0.00 0.00 97 1007.1
20260509140254 82 149 0.0 0.0 0.00 0.00 0.00 97 1007.1
20260509140154 82 149 0.0 0.0 0.00 0.00 0.00 97 1007.1
20260509140054 82 149 0.0 0.0 0.00 0.00 0.00 97 1007.1
20260509135954 82 149 0.0 0.0 0.00 0.00 0.00 97 1007.1
20260509135854 82 149 0.0 0.0 0.00 0.00 0.00 97 1007.1
20260509135754 82 165 0.0 0.0 0.00 0.00 0.00 97 1007.1
20260509135654 82 166 0.0 0.0 0.00 0.00 0.00 97 1007.1
20260509135554 82 166 0.0 0.0 0.00 0.00 0.00 97 1007.1
20260509135454 82 166 0.0 0.0 0.00 0.00 0.00 97 1007.0
20260509135354 82 166 0.0 0.0 0.00 0.00 0.00 97 1007.0
20260509135254 82 166 0.0 0.0 0.00 0.00 0.00 97 1007.0
20260509135154 82 166 0.0 0.0 0.00 0.00 0.00 97 1007.0
20260509135054 82 166 0.0 0.0 0.00 0.00 0.00 97 1007.0
20260509134954 82 166 0.0 0.0 0.00 0.00 0.00 97 1006.9
20260509134854 82 166 0.0 0.0 0.00 0.00 0.00 97 1006.9
20260509134755 82 166 0.0 0.0 0.00 0.00 0.00 97 1006.9
20260509134654 82 166 0.0 0.0 0.00 0.00 0.00 97 1006.9
20260509134554 82 166 0.0 0.0 0.00 0.00 0.00 97 1006.8
20260509134454 82 166 0.0 0.0 0.00 0.00 0.00 98 1006.8
20260509134354 82 166 0.0 0.0 0.00 0.00 0.00 97 1006.8
20260509134254 82 166 0.0 0.0 0.00 0.00 0.00 97 1006.8
20260509134158 82 166 0.0 0.0 0.00 0.00 0.00 97 1006.8
20260509134054 82 166 0.0 0.0 0.00 0.00 0.00 97 1006.8
20260509133954 82 166 0.0 0.0 0.00 0.00 0.00 97 1006.7
20260509133854 82 166 0.0 0.0 0.00 0.00 0.00 97 1006.7
20260509133754 82 166 0.0 0.0 0.00 0.00 0.00 97 1006.7
20260509133654 82 166 0.0 0.0 0.00 0.00 0.00 97 1006.7
20260509133554 82 166 0.0 0.0 0.00 0.00 0.00 97 1006.7
20260509133454 82 166 0.0 0.0 0.00 0.00 0.00 97 1006.7
20260509133354 82 166 0.0 0.0 0.00 0.00 0.00 97 1006.7
20260509133256 82 166 0.0 0.0 0.00 0.00 0.00 97 1006.7
20260509133156 82 161 0.0 0.0 0.00 0.00 0.00 97 1006.7
20260509133054 82 159 0.0 0.0 0.00 0.00 0.00 97 1006.7
20260509132954 82 159 0.0 0.0 0.00 0.00 0.00 97 1006.7
20260509132854 82 159 0.0 0.0 0.00 0.00 0.00 97 1006.7
20260509132755 82 159 0.0 0.0 0.00 0.00 0.00 97 1006.7
20260509132654 82 159 0.0 0.0 0.00 0.00 0.00 97 1006.7
20260509132554 83 160 0.0 0.0 0.00 0.00 0.00 97 1006.7
20260509132454 83 160 0.0 0.9 0.00 0.00 0.00 97 1006.7
20260509132353 83 160 0.0 0.0 0.00 0.00 0.00 97 1006.7
20260509132254 83 160 0.0 0.9 0.00 0.00 0.00 97 1006.7
20260509132154 83 160 0.9 0.0 0.00 0.00 0.00 97 1006.7
20260509132054 83 152 0.0 0.9 0.00 0.00 0.00 97 1006.7
20260509131954 83 148 0.9 1.7 0.00 0.00 0.00 97 1006.7
20260509131854 83 148 1.7 0.9 0.00 0.00 0.00 97 1006.7
20260509131754 83 141 0.9 0.0 0.00 0.00 0.00 97 1006.7
20260509131653 83 135 0.0 0.0 0.00 0.00 0.00 97 1006.7
20260509131555 83 135 0.0 0.0 0.00 0.00 0.00 97 1006.7
20260509131453 83 135 0.0 1.7 0.00 0.00 0.00 97 1006.7
20260509131354 83 135 0.0 0.0 0.00 0.00 0.00 97 1006.7
20260509131253 83 135 0.0 0.9 0.00 0.00 0.00 97 1006.7
20260509131153 83 135 0.9 0.9 0.00 0.00 0.00 97 1006.6
20260509131053 83 146 0.9 0.9 0.00 0.00 0.00 96 1006.6
20260509130953 83 150 0.9 0.0 0.00 0.00 0.00 96 1006.6
20260509130853 83 140 0.0 2.6 0.00 0.00 0.00 97 1006.6
20260509130753 83 140 2.6 2.6 0.00 0.00 0.00 96 1006.6
20260509130653 83 156 2.6 2.6 0.00 0.00 0.00 96 1006.6
20260509130553 83 171 2.6 1.7 0.00 0.00 0.00 96 1006.6
20260509130453 83 160 1.7 0.9 0.00 0.00 0.00 96 1006.6
20260509130353 83 160 1.7 0.0 0.00 0.00 0.00 97 1006.6
20260509130254 83 150 0.0 0.0 0.00 0.00 0.00 96 1006.6
20260509130153 83 168 0.0 0.0 0.00 0.00 0.00 96 1006.6
20260509130054 83 144 0.0 0.0 0.00 0.00 0.00 96 1006.6
20260509125953 83 144 0.0 0.9 0.00 0.00 0.00 96 1006.5
20260509125853 83 144 0.9 0.9 0.00 0.00 0.00 96 1006.5
20260509125753 83 144 0.9 1.7 0.00 0.00 0.00 96 1006.5
20260509125653 83 141 1.7 0.9 0.00 0.00 0.00 96 1006.5
20260509125553 83 153 0.9 1.7 0.00 0.00 0.00 96 1006.5
20260509125453 83 128 1.7 1.7 0.00 0.00 0.00 96 1006.5
20260509125353 83 133 1.7 1.7 0.00 0.00 0.00 96 1006.5
20260509125253 83 133 1.7 2.6 0.00 0.00 0.00 96 1006.5
20260509125153 83 127 2.6 2.6 0.00 0.00 0.00 96 1006.5
20260509125053 83 124 2.6 1.7 0.00 0.00 0.00 96 1006.4
20260509124953 83 124 1.7 2.6 0.00 0.00 0.00 96 1006.4
20260509124853 83 122 2.6 3.5 0.00 0.00 0.00 96 1006.4
20260509124753 83 118 3.5 1.7 0.00 0.00 0.00 96 1006.4
20260509124655 83 115 1.7 1.7 0.00 0.00 0.00 96 1006.4
20260509124553 83 116 1.7 2.6 0.00 0.00 0.00 96 1006.4
20260509124453 83 127 2.6 1.7 0.00 0.00 0.00 96 1006.4
20260509124353 83 124 0.9 0.9 0.00 0.00 0.00 96 1006.4
20260509124253 83 138 0.9 1.7 0.00 0.00 0.00 96 1006.3
20260509124153 83 133 1.7 1.7 0.00 0.00 0.00 96 1006.3
20260509124053 83 131 1.7 2.6 0.00 0.00 0.00 96 1006.3
20260509123953 83 130 2.6 1.7 0.00 0.00 0.00 96 1006.3
20260509123853 83 109 1.7 1.7 0.00 0.00 0.00 96 1006.3
20260509123753 83 124 1.7 1.7 0.00 0.00 0.00 96 1006.3
20260509123653 83 137 1.7 1.7 0.00 0.00 0.00 96 1006.3
20260509123553 83 119 1.7 1.7 0.00 0.00 0.00 96 1006.3
20260509123453 83 133 1.7 1.7 0.00 0.00 0.00 96 1006.3
20260509123353 83 131 1.7 1.7 0.00 0.00 0.00 96 1006.3
20260509123253 83 134 1.7 1.7 0.00 0.00 0.00 96 1006.3
20260509123153 83 132 1.7 1.7 0.00 0.00 0.00 96 1006.3
20260509123053 83 144 1.7 1.7 0.00 0.00 0.00 96 1006.3
20260509122953 83 132 1.7 1.7 0.00 0.00 0.00 95 1006.3
20260509122853 83 140 1.7 1.7 0.00 0.00 0.00 95 1006.2
20260509122753 83 133 1.7 1.7 0.00 0.00 0.00 95 1006.2
20260509122653 83 131 1.7 2.6 0.00 0.00 0.00 95 1006.2
20260509122553 83 130 2.6 2.6 0.00 0.00 0.00 95 1006.2
20260509122453 83 106 2.6 2.6 0.00 0.00 0.00 95 1006.2
20260509122353 83 126 2.6 2.6 0.00 0.00 0.00 95 1006.2
20260509122253 83 125 2.6 1.7 0.00 0.00 0.00 95 1006.2
20260509122153 83 121 1.7 2.6 0.00 0.00 0.00 95 1006.2
20260509122053 83 114 2.6 2.6 0.00 0.00 0.00 95 1006.2
20260509121953 83 103 2.6 2.6 0.00 0.00 0.00 95 1006.2
20260509121853 83 121 2.6 2.6 0.00 0.00 0.00 95 1006.2
20260509121753 83 106 2.6 3.5 0.00 0.00 0.00 95 1006.2
20260509121653 83 112 3.5 3.5 0.00 0.00 0.00 95 1006.1
20260509121553 83 129 3.5 1.7 0.00 0.00 0.00 95 1006.1
20260509121453 83 100 1.7 2.6 0.00 0.00 0.00 95 1006.1
20260509121353 83 119 2.6 2.6 0.00 0.00 0.00 95 1006.1
20260509121253 83 107 2.6 2.6 0.00 0.00 0.00 95 1006.1
20260509121153 83 100 2.6 2.6 0.00 0.00 0.00 95 1006.1
20260509121053 83 102 2.6 2.6 0.00 0.00 0.00 95 1006.1
20260509120953 83 94 2.6 3.5 0.00 0.00 0.00 95 1006.1
20260509120853 83 105 3.5 3.5 0.00 0.00 0.00 95 1006.0
20260509120753 83 109 3.5 3.5 0.00 0.00 0.00 95 1006.0
20260509120653 83 95 3.5 2.6 0.00 0.00 0.00 95 1006.0
20260509120553 83 98 2.6 2.6 0.00 0.00 0.00 95 1006.0
20260509120453 83 88 2.6 2.6 0.00 0.00 0.00 95 1006.0
20260509120353 83 75 2.6 2.6 0.00 0.00 0.00 94 1006.0
20260509120253 83 91 2.6 2.6 0.00 0.00 0.00 94 1006.0
20260509120153 83 103 2.6 1.7 0.00 0.00 0.00 94 1006.0
20260509120055 83 83 1.7 2.6 0.00 0.00 0.00 94 1006.0
20260509115953 83 76 2.6 2.6 0.00 0.00 0.00 94 1006.0
20260509115853 83 74 2.6 1.7 0.00 0.00 0.00 94 1006.0
20260509115753 83 93 1.7 2.6 0.00 0.00 0.00 94 1006.0
20260509115653 83 83 2.6 2.6 0.00 0.00 0.00 94 1006.0
20260509115553 84 79 2.6 2.6 0.00 0.00 0.00 94 1006.0
20260509115453 84 76 2.6 2.6 0.00 0.00 0.00 94 1006.0
20260509115353 84 84 2.6 2.6 0.00 0.00 0.00 94 1006.0
20260509115253 84 90 2.6 2.6 0.00 0.00 0.00 94 1006.0
20260509115153 84 98 2.6 2.6 0.00 0.00 0.00 94 1005.9
20260509115053 84 80 2.6 2.6 0.00 0.00 0.00 93 1005.9
20260509114953 84 86 2.6 2.6 0.00 0.00 0.00 93 1005.9
20260509114853 84 81 2.6 2.6 0.00 0.00 0.00 93 1005.9
20260509114753 84 86 2.6 2.6 0.00 0.00 0.00 93 1005.9
20260509114653 84 73 2.6 2.6 0.00 0.00 0.00 93 1005.9
20260509114553 84 78 2.6 2.6 0.00 0.00 0.00 93 1005.9
20260509114453 84 84 2.6 3.5 0.00 0.00 0.00 93 1005.9
20260509114353 84 80 3.5 2.6 0.00 0.00 0.00 93 1005.9
20260509114253 84 83 2.6 2.6 0.00 0.00 0.00 93 1005.9
20260509114153 84 90 2.6 3.5 0.00 0.00 0.00 92 1005.9
20260509114053 84 86 3.5 3.5 0.00 0.00 0.00 92 1005.9
20260509113953 84 90 3.5 3.5 0.00 0.00 0.00 92 1005.9
20260509113853 84 98 3.5 3.5 0.00 0.00 0.00 92 1005.8
20260509113753 84 96 3.5 2.6 0.00 0.00 0.00 92 1005.8
20260509113653 84 83 2.6 2.6 0.00 0.00 0.00 92 1005.8
20260509113553 84 88 2.6 2.6 0.00 0.00 0.00 91 1005.8
20260509113453 84 101 2.6 3.5 0.00 0.00 0.00 91 1005.8
20260509113353 84 82 2.6 3.5 0.00 0.00 0.00 91 1005.8
20260509113253 84 97 3.5 4.3 0.00 0.00 0.00 91 1005.7
20260509113153 84 88 4.3 3.5 0.00 0.00 0.00 91 1005.7
20260509113053 84 80 3.5 3.5 0.00 0.00 0.00 91 1005.7
20260509112953 85 84 3.5 3.5 0.00 0.00 0.00 91 1005.7
20260509112853 85 73 3.5 3.5 0.00 0.00 0.00 90 1005.7
20260509112753 85 79 3.5 3.5 0.00 0.00 0.00 90 1005.6
20260509112653 85 80 3.5 4.3 0.00 0.00 0.00 90 1005.6
20260509112553 85 84 4.3 4.3 0.00 0.00 0.00 90 1005.6
20260509112453 85 106 4.3 4.3 0.00 0.00 0.00 90 1005.6
20260509112353 85 92 3.5 2.6 0.00 0.00 0.00 90 1005.5
20260509112253 85 83 2.6 2.6 0.00 0.00 0.00 90 1005.5
20260509112153 85 72 2.6 3.5 0.00 0.00 0.00 90 1005.5
20260509112052 85 85 3.5 4.3 0.00 0.00 0.00 89 1005.5
20260509111952 85 83 4.3 4.3 0.00 0.00 0.00 89 1005.4
20260509111852 85 83 4.3 5.2 0.00 0.00 0.00 89 1005.4
20260509111752 85 92 5.2 5.2 0.00 0.00 0.00 89 1005.4
20260509111653 85 106 5.2 4.3 0.00 0.00 0.00 89 1005.4
20260509111553 85 118 4.3 5.2 0.00 0.00 0.00 89 1005.3
20260509111453 85 98 5.2 6.1 0.00 0.00 0.00 88 1005.3
20260509111353 85 83 5.2 5.2 0.00 0.00 0.00 88 1005.3
20260509111252 85 101 5.2 5.2 0.00 0.00 0.00 88 1005.3
20260509111153 85 100 5.2 5.2 0.00 0.00 0.00 88 1005.3
20260509111052 85 90 5.2 6.1 0.00 0.00 0.00 88 1005.3
20260509110952 85 96 6.1 6.1 0.00 0.00 0.00 88 1005.2
20260509110852 85 83 6.1 6.1 0.00 0.00 0.00 87 1005.2
20260509110752 86 107 6.1 7.8 0.00 0.00 0.00 87 1005.2
20260509110652 86 92 7.8 7.0 0.00 0.00 0.00 87 1005.2
20260509110552 86 85 7.0 7.0 0.00 0.00 0.00 87 1005.2
20260509110452 86 106 7.0 5.2 0.00 0.00 0.00 87 1005.1
20260509110352 86 92 7.8 6.1 0.00 0.00 0.00 86 1005.1
20260509110252 86 76 6.1 5.2 0.00 0.00 0.00 86 1005.1
20260509110152 86 108 5.2 4.3 0.00 0.00 0.00 86 1005.1
20260509110052 86 85 4.3 4.3 0.00 0.00 0.00 87 1005.1
20260509105952 86 98 4.3 5.2 0.00 0.00 0.00 86 1005.1
20260509105852 86 83 5.2 6.1 0.00 0.00 0.00 86 1005.1
20260509105752 86 82 6.1 6.1 0.00 0.00 0.00 86 1005.1
20260509105652 86 94 6.1 7.0 0.00 0.00 0.00 87 1005.1
20260509105552 86 102 7.0 5.2 0.00 0.00 0.00 86 1005.0
20260509105452 86 98 5.2 5.2 0.00 0.00 0.00 86 1005.0
20260509105352 86 71 4.3 5.2 0.00 0.00 0.00 86 1005.0
20260509105252 86 89 5.2 5.2 0.00 0.00 0.00 86 1005.0
20260509105152 86 97 5.2 4.3 0.00 0.00 0.00 86 1005.0
20260509105052 86 96 4.3 5.2 0.00 0.00 0.00 87 1004.9
20260509104952 86 73 5.2 6.1 0.00 0.00 0.00 86 1004.9
20260509104852 86 88 6.1 5.2 0.00 0.00 0.00 86 1004.9
20260509104752 86 83 5.2 5.2 0.00 0.00 0.00 86 1004.9
20260509104554 86 86 6.1 5.2 0.00 0.00 0.00 86 1004.8
20260509104452 86 87 5.2 6.1 0.00 0.00 0.00 86 1004.8
20260509104352 86 97 5.2 7.0 0.00 0.00 0.00 86 1004.8
20260509104252 86 72 7.0 6.1 0.00 0.00 0.00 86 1004.8
20260509104152 86 91 6.1 4.3 0.00 0.00 0.00 86 1004.8
20260509103952 86 72 3.5 4.3 0.00 0.00 0.00 86 1004.7
20260509103852 86 79 4.3 5.2 0.00 0.00 0.00 86 1004.7
20260509103752 86 63 5.2 5.2 0.00 0.00 0.00 85 1004.7
20260509103652 86 47 5.2 5.2 0.00 0.00 0.00 85 1004.7
20260509103552 86 76 5.2 7.0 0.00 0.00 0.00 85 1004.7
20260509103452 86 76 7.0 5.2 0.00 0.00 0.00 85 1004.7
20260509103352 86 66 7.8 7.0 0.00 0.00 0.00 85 1004.7
20260509103252 86 78 7.0 7.8 0.00 0.00 0.00 85 1004.6
20260509103152 86 76 7.8 7.0 0.00 0.00 0.00 85 1004.6
20260509103052 86 64 7.0 7.0 0.00 0.00 0.00 85 1004.6
20260509102952 87 77 7.0 5.2 0.00 0.00 0.00 85 1004.6
20260509102852 87 68 5.2 6.1 0.00 0.00 0.00 86 1004.6
20260509102752 87 89 6.1 6.1 0.00 0.00 0.00 85 1004.6
20260509102652 87 87 6.1 5.2 0.00 0.00 0.00 86 1004.6
20260509102552 87 87 5.2 5.2 0.00 0.00 0.00 86 1004.6
20260509102452 87 97 5.2 6.1 0.00 0.00 0.00 86 1004.6
20260509102352 86 83 5.2 3.5 0.00 0.00 0.00 86 1004.6
20260509102252 86 83 3.5 5.2 0.00 0.00 0.00 85 1004.6
20260509102152 86 84 5.2 5.2 0.00 0.00 0.00 85 1004.6
20260509102052 86 68 5.2 6.1 0.00 0.00 0.00 85 1004.6
20260509101952 87 87 6.1 6.1 0.00 0.00 0.00 85 1004.6
20260509101852 87 68 6.1 6.1 0.00 0.00 0.00 85 1004.6
20260509101752 87 92 6.1 6.1 0.00 0.00 0.00 85 1004.6
20260509101652 87 83 6.1 7.0 0.00 0.00 0.00 85 1004.6
20260509101552 87 74 7.0 6.1 0.00 0.00 0.00 85 1004.6
20260509101452 87 86 6.1 5.2 0.00 0.00 0.00 85 1004.6
20260509101352 87 91 5.2 4.3 0.00 0.00 0.00 85 1004.6
20260509101252 87 66 4.3 5.2 0.00 0.00 0.00 85 1004.6
20260509101152 87 74 5.2 4.3 0.00 0.00 0.00 85 1004.6
20260509101052 87 63 4.3 5.2 0.00 0.00 0.00 85 1004.6
20260509100954 87 60 5.2 3.5 0.00 0.00 0.00 85 1004.6
20260509100852 87 60 3.5 5.2 0.00 0.00 0.00 85 1004.6
20260509100752 87 70 5.2 7.0 0.00 0.00 0.00 85 1004.6
20260509100652 87 80 7.0 7.0 0.00 0.00 0.00 85 1004.6
20260509100552 87 47 7.0 7.0 0.00 0.00 0.00 85 1004.6
20260509100452 87 54 7.0 7.0 0.00 0.00 0.00 85 1004.6
20260509100352 87 86 5.2 5.2 0.00 0.00 0.00 85 1004.6
20260509100252 87 63 5.2 5.2 0.00 0.00 0.00 85 1004.6
20260509100152 87 47 5.2 7.0 0.00 0.00 0.00 85 1004.6
20260509100052 87 58 7.0 7.0 0.00 0.00 0.00 84 1004.6
20260509095952 87 52 7.0 7.0 0.00 0.00 0.00 84 1004.6
20260509095852 87 91 7.0 7.0 0.00 0.00 0.00 84 1004.6
20260509095752 87 93 7.0 6.1 0.00 0.00 0.00 83 1004.6
20260509095652 87 103 6.1 7.0 0.00 0.00 0.00 83 1004.5
20260509095552 87 80 7.0 7.8 0.00 0.00 0.00 83 1004.5
20260509095452 87 92 7.8 7.8 0.00 0.00 0.00 83 1004.5
20260509095352 87 80 5.2 6.1 0.00 0.00 0.00 84 1004.5
20260509095252 87 79 6.1 7.8 0.00 0.00 0.00 84 1004.5
20260509095152 87 89 7.8 7.8 0.00 0.00 0.00 83 1004.5
20260509095052 87 84 7.8 7.8 0.00 0.00 0.00 83 1004.5
20260509095000 87 64 6.1 7.8 0.00 0.00 0.00 83 1004.5
20260509094552 87 82 7.8 7.0 0.00 0.00 0.00 82 1004.5
20260509094452 87 61 7.0 7.0 0.00 0.00 0.00 83 1004.5
20260509094352 87 71 7.0 7.0 0.00 0.00 0.00 82 1004.5
20260509094252 87 56 7.0 8.7 0.00 0.00 0.00 82 1004.5
20260509094243 88 68 8.7 7.0 0.00 0.00 0.00 82 1004.5
20260509094052 88 83 7.0 6.1 0.00 0.00 0.00 82 1004.4
20260509094043 88 76 6.1 7.8 0.00 0.00 0.00 82 1004.4
20260509093920 88 90 7.8 7.0 0.00 0.00 0.00 81 1004.4
20260509093741 88 112 7.0 7.0 0.00 0.00 0.00 81 1004.4
20260509093633 88 87 7.0 7.0 0.00 0.00 0.00 81 1004.4
20260509093452 88 104 7.0 7.8 0.00 0.00 0.00 81 1004.4
20260509093352 88 95 8.7 7.8 0.00 0.00 0.00 81 1004.4
20260509093252 88 59 7.8 7.0 0.00 0.00 0.00 82 1004.4
20260509093152 88 74 7.0 7.8 0.00 0.00 0.00 81 1004.4
20260509093053 88 92 7.8 7.8 0.00 0.00 0.00 81 1004.4
20260509092952 88 87 7.8 6.1 0.00 0.00 0.00 82 1004.4
20260509092852 88 87 6.1 7.8 0.00 0.00 0.00 82 1004.4
20260509092752 88 79 7.8 6.1 0.00 0.00 0.00 81 1004.4
20260509092652 88 78 6.1 7.8 0.00 0.00 0.00 82 1004.4
20260509092552 88 75 7.8 8.7 0.00 0.00 0.00 81 1004.4
20260509092452 88 93 8.7 7.8 0.00 0.00 0.00 81 1004.4
20260509092352 88 97 7.0 8.7 0.00 0.00 0.00 80 1004.4
20260509092252 88 66 8.7 8.7 0.00 0.00 0.00 80 1004.4
20260509092152 88 83 8.7 9.6 0.00 0.00 0.00 81 1004.4
20260509092052 88 88 9.6 7.8 0.00 0.00 0.00 81 1004.4
20260509091952 88 87 7.8 8.7 0.00 0.00 0.00 80 1004.4
20260509091852 88 111 8.7 7.8 0.00 0.00 0.00 80 1004.4
20260509091752 88 81 7.8 8.7 0.00 0.00 0.00 81 1004.5
20260509091652 88 110 8.7 8.7 0.00 0.00 0.00 80 1004.5
20260509091555 88 118 8.7 8.7 0.00 0.00 0.00 80 1004.5
20260509091452 89 91 8.7 7.0 0.00 0.00 0.00 80 1004.5
20260509091352 89 91 7.0 7.8 0.00 0.00 0.00 81 1004.5
20260509091251 88 122 7.8 8.7 0.00 0.00 0.00 82 1004.5
20260509091151 88 92 8.7 6.1 0.00 0.00 0.00 81 1004.5
20260509091052 88 97 6.1 6.1 0.00 0.00 0.00 82 1004.5
20260509090952 88 76 6.1 7.8 0.00 0.00 0.00 83 1004.5
20260509090851 88 60 7.8 6.1 0.00 0.00 0.00 83 1004.6
20260509090751 88 70 6.1 7.8 0.00 0.00 0.00 83 1004.6
20260509090651 88 71 7.8 7.0 0.00 0.00 0.00 83 1004.6
20260509090552 88 54 7.0 6.1 0.00 0.00 0.00 82 1004.6
20260509090452 88 70 6.1 7.8 0.00 0.00 0.00 83 1004.6
20260509090351 88 27 8.7 9.6 0.00 0.00 0.00 83 1004.6
20260509090251 88 31 9.6 7.0 0.00 0.00 0.00 82 1004.6
20260509090151 88 23 7.0 7.0 0.00 0.00 0.00 83 1004.6
20260509090053 88 46 7.0 8.7 0.00 0.00 0.00 83 1004.7
20260509085951 88 74 8.7 7.0 0.00 0.00 0.00 82 1004.7
20260509085851 88 51 7.0 9.6 0.00 0.00 0.00 83 1004.7
20260509085751 88 77 9.6 8.7 0.00 0.00 0.00 82 1004.7
20260509085651 88 96 8.7 8.7 0.00 0.00 0.00 82 1004.7
20260509085551 88 112 8.7 7.8 0.00 0.00 0.00 82 1004.8
20260509085451 88 88 7.8 7.8 0.00 0.00 0.00 82 1004.8
20260509085351 88 86 7.0 8.7 0.00 0.00 0.00 83 1004.8
20260509085251 88 73 8.7 7.0 0.00 0.00 0.00 82 1004.8
20260509085151 88 83 7.0 7.0 0.00 0.00 0.00 83 1004.8
20260509085051 88 68 7.0 7.0 0.00 0.00 0.00 83 1004.8
20260509084951 88 30 7.0 7.8 0.00 0.00 0.00 83 1004.8
20260509084851 88 32 7.8 7.8 0.00 0.00 0.00 83 1004.9
20260509084751 88 70 7.8 7.8 0.00 0.00 0.00 82 1004.9
20260509084651 88 41 7.8 10.4 0.00 0.00 0.00 82 1004.9
20260509084553 89 53 10.4 7.8 0.00 0.00 0.00 82 1004.9
20260509084451 89 60 7.8 7.0 0.00 0.00 0.00 83 1004.9
20260509084351 88 82 7.0 7.0 0.00 0.00 0.00 82 1004.9
20260509084251 88 90 7.0 7.8 0.00 0.00 0.00 82 1004.9
20260509084151 89 28 7.8 9.6 0.00 0.00 0.00 82 1005.0
20260509084051 89 51 9.6 8.7 0.00 0.00 0.00 82 1005.0
20260509083951 89 45 8.7 7.0 0.00 0.00 0.00 81 1005.0
20260509083851 89 48 7.0 7.0 0.00 0.00 0.00 82 1005.0
20260509083751 89 36 7.0 9.6 0.00 0.00 0.00 83 1005.0
20260509083651 89 50 9.6 7.8 0.00 0.00 0.00 82 1005.0
20260509083551 89 61 7.8 7.8 0.00 0.00 0.00 82 1005.0
20260509083451 89 44 7.8 7.8 0.00 0.00 0.00 81 1005.0
20260509083351 89 53 5.2 7.0 0.00 0.00 0.00 82 1005.0
20260509083251 89 50 7.0 7.0 0.00 0.00 0.00 82 1005.0
20260509083151 89 97 7.0 6.1 0.00 0.00 0.00 81 1005.1
20260509083051 89 77 6.1 10.4 0.00 0.00 0.00 80 1005.1
20260509082951 89 88 10.4 8.7 0.00 0.00 0.00 79 1005.1
20260509082851 89 89 8.7 7.0 0.00 0.00 0.00 81 1005.1
20260509082751 89 38 7.0 7.8 0.00 0.00 0.00 81 1005.1
20260509082651 89 57 7.8 7.8 0.00 0.00 0.00 81 1005.1
20260509082551 89 94 7.8 7.8 0.00 0.00 0.00 81 1005.1
20260509082451 90 59 7.8 7.0 0.00 0.00 0.00 81 1005.1
20260509082351 90 30 7.0 7.8 0.00 0.00 0.00 80 1005.2
20260509082251 90 45 7.8 7.8 0.00 0.00 0.00 80 1005.2
20260509082151 90 54 7.8 6.1 0.00 0.00 0.00 81 1005.2
20260509082051 90 23 6.1 6.1 0.00 0.00 0.00 81 1005.2
20260509081951 90 74 6.1 7.8 0.00 0.00 0.00 81 1005.2
20260509081851 89 69 7.8 6.1 0.00 0.00 0.00 80 1005.2
20260509081751 89 64 6.1 6.1 0.00 0.00 0.00 81 1005.2
20260509081651 90 67 6.1 9.6 0.00 0.00 0.00 80 1005.2
20260509081555 90 33 9.6 8.7 0.00 0.00 0.00 79 1005.2
20260509081451 90 35 8.7 8.7 0.00 0.00 0.00 79 1005.2
20260509081351 90 73 7.8 6.1 0.00 0.00 0.00 79 1005.2
20260509081251 90 8 6.1 6.1 0.00 0.00 0.00 80 1005.2
20260509081151 90 57 6.1 9.6 0.00 0.00 0.00 80 1005.3
20260509081051 90 61 9.6 6.1 0.00 0.00 0.00 80 1005.3
20260509080951 90 52 6.1 7.0 0.00 0.00 0.00 81 1005.3
20260509080851 90 57 7.0 8.7 0.00 0.00 0.00 81 1005.3
20260509080751 90 72 8.7 8.7 0.00 0.00 0.00 80 1005.3
20260509080651 90 75 8.7 10.4 0.00 0.00 0.00 80 1005.3
20260509080551 90 72 10.4 9.6 0.00 0.00 0.00 80 1005.3
20260509080451 90 51 9.6 7.0 0.00 0.00 0.00 81 1005.3
20260509080351 90 34 7.8 7.8 0.00 0.00 0.00 81 1005.3
20260509080251 90 72 7.8 9.6 0.00 0.00 0.00 80 1005.3
20260509080151 90 41 9.6 8.7 0.00 0.00 0.00 80 1005.3
20260509080051 90 17 8.7 6.1 0.00 0.00 0.00 80 1005.4
20260509075951 90 45 6.1 6.1 0.00 0.00 0.00 80 1005.4
20260509075851 90 21 6.1 5.2 0.00 0.00 0.00 81 1005.4
20260509075751 90 43 5.2 6.1 0.00 0.00 0.00 81 1005.4
20260509075651 90 25 6.1 7.0 0.00 0.00 0.00 81 1005.4
20260509075551 90 24 7.0 9.6 0.00 0.00 0.00 80 1005.4
20260509075451 90 72 9.6 7.8 0.00 0.00 0.00 80 1005.4
20260509075351 90 76 7.8 6.1 0.00 0.00 0.00 81 1005.4
20260509075251 90 75 6.1 9.6 0.00 0.00 0.00 80 1005.4
20260509075151 90 54 9.6 7.8 0.00 0.00 0.00 80 1005.4
20260509075051 90 46 7.8 7.8 0.00 0.00 0.00 79 1005.4
20260509074951 91 70 7.8 6.1 0.00 0.00 0.00 79 1005.5
20260509074851 91 64 6.1 5.2 0.00 0.00 0.00 79 1005.5
20260509074751 90 56 5.2 6.1 0.00 0.00 0.00 81 1005.5
20260509074651 90 37 6.1 7.0 0.00 0.00 0.00 81 1005.5
20260509074557 90 9 7.0 7.0 0.00 0.00 0.00 81 1005.5
20260509074451 90 0 7.0 7.8 0.00 0.00 0.00 80 1005.5
20260509074351 90 65 8.7 7.8 0.00 0.00 0.00 79 1005.5
20260509074251 90 34 7.8 9.6 0.00 0.00 0.00 80 1005.5
20260509074151 90 38 9.6 7.8 0.00 0.00 0.00 80 1005.5
20260509074051 90 59 7.8 9.6 0.00 0.00 0.00 80 1005.5
20260509073951 90 25 9.6 7.8 0.00 0.00 0.00 80 1005.5
20260509073851 90 69 7.8 9.6 0.00 0.00 0.00 80 1005.5
20260509073751 90 32 9.6 7.8 0.00 0.00 0.00 79 1005.5
20260509073651 90 30 7.8 10.4 0.00 0.00 0.00 80 1005.6
20260509073551 90 8 10.4 7.0 0.00 0.00 0.00 79 1005.6
20260509073451 90 19 7.0 5.2 0.00 0.00 0.00 80 1005.6
20260509073351 90 50 7.0 7.0 0.00 0.00 0.00 81 1005.6
20260509073251 90 13 7.0 4.3 0.00 0.00 0.00 81 1005.6
20260509073151 90 11 4.3 7.0 0.00 0.00 0.00 81 1005.6
20260509073059 90 12 7.0 6.1 0.00 0.00 0.00 82 1005.7
20260509072951 90 30 6.1 7.0 0.00 0.00 0.00 82 1005.7
20260509072851 90 26 7.0 7.0 0.00 0.00 0.00 81 1005.7
20260509072751 89 13 7.0 5.2 0.00 0.00 0.00 82 1005.7
20260509072651 89 37 5.2 3.5 0.00 0.00 0.00 82 1005.7
20260509072551 89 23 3.5 4.3 0.00 0.00 0.00 81 1005.7
20260509072451 90 6 4.3 6.1 0.00 0.00 0.00 81 1005.7
20260509072351 90 46 5.2 4.3 0.00 0.00 0.00 80 1005.8
20260509072251 90 17 4.3 4.3 0.00 0.00 0.00 81 1005.8
20260509072151 90 40 4.3 4.3 0.00 0.00 0.00 81 1005.8
20260509072051 90 0 4.3 7.8 0.00 0.00 0.00 80 1005.8
20260509071951 90 65 7.8 7.0 0.00 0.00 0.00 79 1005.8
20260509071851 90 8 7.0 5.2 0.00 0.00 0.00 79 1005.8
20260509071751 90 53 5.2 2.6 0.00 0.00 0.00 80 1005.8
20260509071651 90 52 2.6 4.3 0.00 0.00 0.00 81 1005.8
20260509071551 90 52 4.3 5.2 0.00 0.00 0.00 81 1005.8
20260509071450 89 26 5.2 5.2 0.00 0.00 0.00 80 1005.8
20260509071351 89 26 6.1 7.0 0.00 0.00 0.00 80 1005.8
20260509071250 90 0 7.0 5.2 0.00 0.00 0.00 80 1005.9
20260509071150 90 355 5.2 5.2 0.00 0.00 0.00 80 1005.9
20260509071050 90 38 5.2 7.0 0.00 0.00 0.00 80 1005.9
20260509070950 90 50 7.0 5.2 0.00 0.00 0.00 79 1005.9
20260509070850 90 51 5.2 4.3 0.00 0.00 0.00 80 1005.9
20260509070750 90 44 4.3 6.1 0.00 0.00 0.00 80 1005.9
20260509070650 90 41 6.1 6.1 0.00 0.00 0.00 80 1005.9
20260509070550 90 0 6.1 6.1 0.00 0.00 0.00 78 1005.9
20260509070450 90 11 6.1 7.8 0.00 0.00 0.00 78 1005.9
20260509070350 91 16 4.3 4.3 0.00 0.00 0.00 77 1005.9
20260509070250 91 19 4.3 2.6 0.00 0.00 0.00 77 1005.9
20260509070150 91 51 2.6 5.2 0.00 0.00 0.00 77 1005.9
20260509070058 91 37 5.2 6.1 0.00 0.00 0.00 77 1005.9
20260509065950 91 106 6.1 7.0 0.00 0.00 0.00 77 1005.9
20260509065850 90 53 7.0 9.6 0.00 0.00 0.00 78 1005.9
20260509065750 91 64 9.6 7.0 0.00 0.00 0.00 77 1005.9
20260509065650 91 38 7.0 7.8 0.00 0.00 0.00 77 1005.9
20260509065550 91 44 7.8 7.8 0.00 0.00 0.00 77 1005.9
20260509065450 91 62 7.8 6.1 0.00 0.00 0.00 76 1005.9
20260509065350 91 49 7.0 7.8 0.00 0.00 0.00 76 1006.0
20260509065250 91 64 7.8 6.1 0.00 0.00 0.00 76 1006.0
20260509065150 91 72 6.1 5.2 0.00 0.00 0.00 76 1006.0
20260509065050 91 79 5.2 7.8 0.00 0.00 0.00 77 1006.0
20260509064950 91 66 7.8 7.8 0.00 0.00 0.00 75 1006.0
20260509064850 91 61 7.8 6.1 0.00 0.00 0.00 76 1006.0
20260509064750 91 63 6.1 6.1 0.00 0.00 0.00 76 1006.0
20260509064650 91 88 6.1 3.5 0.00 0.00 0.00 76 1006.0
20260509064550 91 118 3.5 7.0 0.00 0.00 0.00 76 1006.0
20260509064450 91 78 7.0 7.0 0.00 0.00 0.00 75 1006.1
20260509064350 91 61 6.1 7.8 0.00 0.00 0.00 76 1006.1
20260509064250 90 65 7.8 6.1 0.00 0.00 0.00 75 1006.1
20260509064150 91 46 6.1 6.1 0.00 0.00 0.00 76 1006.1
20260509064050 91 26 6.1 6.1 0.00 0.00 0.00 76 1006.1
20260509063950 90 95 6.1 6.1 0.00 0.00 0.00 77 1006.1
20260509063850 90 58 6.1 7.8 0.00 0.00 0.00 78 1006.1
20260509063750 90 53 7.8 6.1 0.00 0.00 0.00 78 1006.2
20260509063650 90 114 6.1 6.1 0.00 0.00 0.00 77 1006.2
20260509063550 90 100 6.1 6.1 0.00 0.00 0.00 77 1006.2
20260509063450 91 82 6.1 6.1 0.00 0.00 0.00 76 1006.2
20260509063350 91 88 7.8 6.1 0.00 0.00 0.00 77 1006.2
20260509063250 91 82 6.1 8.7 0.00 0.00 0.00 78 1006.2
20260509063150 90 55 8.7 8.7 0.00 0.00 0.00 78 1006.2
20260509063052 90 73 8.7 7.8 0.00 0.00 0.00 78 1006.2
20260509062950 90 59 7.8 8.7 0.00 0.00 0.00 77 1006.2
20260509062850 91 78 8.7 7.8 0.00 0.00 0.00 77 1006.2
20260509062750 91 75 7.8 4.3 0.00 0.00 0.00 78 1006.2
20260509062650 90 72 4.3 4.3 0.00 0.00 0.00 79 1006.2
20260509062550 90 86 4.3 7.0 0.00 0.00 0.00 78 1006.2
20260509062450 90 50 7.0 5.2 0.00 0.00 0.00 77 1006.2
20260509062350 90 46 6.1 7.0 0.00 0.00 0.00 77 1006.2
20260509062250 90 55 7.0 6.1 0.00 0.00 0.00 77 1006.2
20260509062150 90 79 6.1 7.0 0.00 0.00 0.00 77 1006.2
20260509062050 91 97 7.0 5.2 0.00 0.00 0.00 76 1006.3
20260509061950 91 85 5.2 6.1 0.00 0.00 0.00 76 1006.3
20260509061850 91 62 6.1 6.1 0.00 0.00 0.00 75 1006.3
20260509061750 91 44 6.1 4.3 0.00 0.00 0.00 76 1006.3
20260509061650 91 58 4.3 5.2 0.00 0.00 0.00 77 1006.3
20260509061552 91 59 5.2 6.1 0.00 0.00 0.00 77 1006.3
20260509061450 91 38 6.1 6.1 0.00 0.00 0.00 77 1006.3
20260509061350 91 32 3.5 5.2 0.00 0.00 0.00 77 1006.4
20260509061250 91 74 5.2 7.0 0.00 0.00 0.00 76 1006.4
20260509061150 91 84 7.0 7.8 0.00 0.00 0.00 76 1006.4
20260509061050 91 70 7.8 4.3 0.00 0.00 0.00 77 1006.4
20260509060950 91 50 4.3 5.2 0.00 0.00 0.00 77 1006.4
20260509060850 91 83 5.2 7.0 0.00 0.00 0.00 76 1006.4
20260509060750 91 50 7.0 5.2 0.00 0.00 0.00 76 1006.4
20260509060650 91 36 5.2 7.0 0.00 0.00 0.00 78 1006.4
20260509060550 91 68 7.0 7.8 0.00 0.00 0.00 77 1006.4
20260509060450 91 65 7.8 4.3 0.00 0.00 0.00 77 1006.4
20260509060350 91 68 7.0 7.8 0.00 0.00 0.00 77 1006.4
20260509060250 91 84 7.8 7.0 0.00 0.00 0.00 77 1006.4
20260509060150 91 104 7.0 4.3 0.00 0.00 0.00 76 1006.4
20260509060057 91 123 4.3 5.2 0.00 0.00 0.00 76 1006.4
20260509055951 91 69 5.2 7.8 0.00 0.00 0.00 76 1006.4
20260509055850 91 80 7.8 4.3 0.00 0.00 0.00 76 1006.4
20260509055750 91 107 4.3 2.6 0.00 0.00 0.00 78 1006.4
20260509055650 91 77 2.6 5.2 0.00 0.00 0.00 77 1006.5
20260509055550 91 47 5.2 7.0 0.00 0.00 0.00 77 1006.5
20260509055450 91 16 7.0 4.3 0.00 0.00 0.00 77 1006.5
20260509055350 91 22 4.3 4.3 0.00 0.00 0.00 78 1006.5
20260509055250 91 15 4.3 2.6 0.00 0.00 0.00 77 1006.5
20260509055150 91 14 2.6 2.6 0.00 0.00 0.00 78 1006.5
20260509055050 91 77 2.6 5.2 0.00 0.00 0.00 77 1006.5
20260509054950 91 8 5.2 3.5 0.00 0.00 0.00 77 1006.6
20260509054850 91 54 3.5 1.7 0.00 0.00 0.00 78 1006.6
20260509054750 90 63 1.7 3.5 0.00 0.00 0.00 78 1006.6
20260509054650 90 115 3.5 2.6 0.00 0.00 0.00 77 1006.6
20260509054551 90 138 2.6 3.5 0.00 0.00 0.00 78 1006.6
20260509054450 90 68 3.5 6.1 0.00 0.00 0.00 77 1006.6
20260509054350 90 70 4.3 4.3 0.00 0.00 0.00 77 1006.7
20260509054250 90 71 4.3 7.0 0.00 0.00 0.00 77 1006.7
20260509054150 91 55 7.0 6.1 0.00 0.00 0.00 77 1006.7
20260509054050 91 76 6.1 3.5 0.00 0.00 0.00 77 1006.7
20260509053950 91 52 3.5 4.3 0.00 0.00 0.00 78 1006.7
20260509053850 91 58 4.3 5.2 0.00 0.00 0.00 76 1006.7
20260509053750 91 81 5.2 5.2 0.00 0.00 0.00 75 1006.7
20260509053650 92 83 5.2 7.0 0.00 0.00 0.00 74 1006.8
20260509053550 92 32 7.0 7.0 0.00 0.00 0.00 75 1006.8
20260509053450 92 142 7.0 5.2 0.00 0.00 0.00 75 1006.8
20260509053350 92 98 3.5 5.2 0.00 0.00 0.00 75 1006.8
20260509053250 92 89 5.2 4.3 0.00 0.00 0.00 73 1006.8
20260509053150 92 97 4.3 8.7 0.00 0.00 0.00 74 1006.8
20260509053050 92 114 8.7 5.2 0.00 0.00 0.00 74 1006.9
20260509052950 92 105 5.2 4.3 0.00 0.00 0.00 76 1006.9
20260509052850 92 132 4.3 3.5 0.00 0.00 0.00 75 1006.9
20260509052750 92 104 3.5 5.2 0.00 0.00 0.00 74 1006.9
20260509052650 92 133 5.2 6.1 0.00 0.00 0.00 75 1006.9
20260509052550 92 120 6.1 6.1 0.00 0.00 0.00 74 1006.9
20260509052450 92 26 6.1 6.1 0.00 0.00 0.00 75 1007.0
20260509052350 92 63 6.1 6.1 0.00 0.00 0.00 75 1007.0
20260509052250 92 38 6.1 5.2 0.00 0.00 0.00 74 1007.0
20260509052150 92 100 5.2 4.3 0.00 0.00 0.00 73 1007.0
20260509052050 92 121 4.3 6.1 0.00 0.00 0.00 74 1007.0
20260509051950 92 120 6.1 5.2 0.00 0.00 0.00 74 1007.1
20260509051850 92 98 5.2 5.2 0.00 0.00 0.00 74 1007.1
20260509051750 92 108 5.2 6.1 0.00 0.00 0.00 74 1007.1
20260509051650 92 63 6.1 6.1 0.00 0.00 0.00 74 1007.1
20260509051555 92 94 6.1 7.8 0.00 0.00 0.00 74 1007.2
20260509051449 92 89 7.8 4.3 0.00 0.00 0.00 75 1007.2
20260509051349 91 116 6.1 5.2 0.00 0.00 0.00 76 1007.2
20260509051249 91 129 5.2 5.2 0.00 0.00 0.00 78 1007.3
20260509051149 91 154 5.2 5.2 0.00 0.00 0.00 78 1007.3
20260509051049 91 188 5.2 4.3 0.00 0.00 0.00 78 1007.3
20260509050949 91 149 4.3 6.1 0.00 0.00 0.00 79 1007.4
20260509050850 90 124 6.1 6.1 0.00 0.00 0.00 79 1007.4
20260509050749 90 123 6.1 5.2 0.00 0.00 0.00 80 1007.4
20260509050649 90 131 5.2 4.3 0.00 0.00 0.00 80 1007.4
20260509050549 90 123 4.3 4.3 0.00 0.00 0.00 80 1007.5
20260509050449 90 136 4.3 3.5 0.00 0.00 0.00 79 1007.5
20260509050349 90 130 4.3 6.1 0.00 0.00 0.00 79 1007.5
20260509050249 90 138 6.1 1.7 0.00 0.00 0.00 78 1007.5
20260509050149 91 117 1.7 2.6 0.00 0.00 0.00 79 1007.6
20260509050049 91 142 2.6 2.6 0.00 0.00 0.00 79 1007.6
20260509045949 90 150 2.6 4.3 0.00 0.00 0.00 79 1007.6
20260509045849 90 141 4.3 4.3 0.00 0.00 0.00 80 1007.6
20260509045749 90 123 4.3 7.0 0.00 0.00 0.00 81 1007.6
20260509045649 90 132 7.0 4.3 0.00 0.00 0.00 79 1007.7
20260509045549 90 139 4.3 3.5 0.00 0.00 0.00 80 1007.7
20260509045449 90 160 3.5 3.5 0.00 0.00 0.00 80 1007.7
20260509045349 90 146 5.2 2.6 0.00 0.00 0.00 79 1007.7
20260509045249 90 162 2.6 3.5 0.00 0.00 0.00 79 1007.7
20260509045149 90 105 3.5 0.9 0.00 0.00 0.00 80 1007.8
20260509045049 90 85 0.9 1.7 0.00 0.00 0.00 81 1007.8
20260509044949 90 174 1.7 6.1 0.00 0.00 0.00 80 1007.8
20260509044849 90 140 6.1 4.3 0.00 0.00 0.00 79 1007.8
20260509044749 90 152 4.3 2.6 0.00 0.00 0.00 81 1007.8
20260509044649 90 123 2.6 3.5 0.00 0.00 0.00 80 1007.9
20260509044551 90 76 3.5 5.2 0.00 0.00 0.00 79 1007.9
20260509044449 90 101 5.2 1.7 0.00 0.00 0.00 80 1007.9
20260509044349 90 105 4.3 4.3 0.00 0.00 0.00 81 1007.9
20260509044249 90 141 4.3 0.0 0.00 0.00 0.00 80 1007.9
20260509044149 90 125 0.0 0.0 0.00 0.00 0.00 82 1008.0
20260509044049 89 131 0.0 0.0 0.00 0.00 0.00 81 1008.0
20260509043949 89 115 0.0 0.0 0.00 0.00 0.00 81 1008.0
20260509043849 89 39 0.0 0.9 0.00 0.00 0.00 81 1008.0
20260509043749 89 178 0.9 2.6 0.00 0.00 0.00 80 1008.0
20260509043649 89 158 2.6 3.5 0.00 0.00 0.00 81 1008.0
20260509043549 89 157 3.5 2.6 0.00 0.00 0.00 82 1008.1
20260509043449 89 168 2.6 2.6 0.00 0.00 0.00 82 1008.1
20260509043349 89 94 0.9 1.7 0.00 0.00 0.00 83 1008.1
20260509043249 88 92 1.7 2.6 0.00 0.00 0.00 82 1008.1
20260509043149 88 121 2.6 3.5 0.00 0.00 0.00 81 1008.1
20260509043051 88 115 3.5 3.5 0.00 0.00 0.00 82 1008.1
20260509042949 88 144 3.5 4.3 0.00 0.00 0.00 82 1008.1
20260509042849 88 108 4.3 4.3 0.00 0.00 0.00 82 1008.2
20260509042749 88 113 4.3 4.3 0.00 0.00 0.00 81 1008.2
20260509042649 88 121 4.3 5.2 0.00 0.00 0.00 82 1008.2
20260509042549 88 141 5.2 4.3 0.00 0.00 0.00 82 1008.2
20260509042449 88 135 4.3 3.5 0.00 0.00 0.00 82 1008.2
20260509042349 88 131 0.9 0.0 0.00 0.00 0.00 82 1008.2
20260509042249 88 164 0.0 2.6 0.00 0.00 0.00 82 1008.3
20260509042149 88 148 2.6 1.7 0.00 0.00 0.00 82 1008.3
20260509042049 88 144 1.7 1.7 0.00 0.00 0.00 83 1008.3
20260509041949 88 144 1.7 1.7 0.00 0.00 0.00 83 1008.3
20260509041849 88 144 1.7 2.6 0.00 0.00 0.00 83 1008.3
20260509041749 87 135 2.6 3.5 0.00 0.00 0.00 83 1008.3
20260509041649 88 139 3.5 3.5 0.00 0.00 0.00 84 1008.3
20260509041555 88 135 3.5 3.5 0.00 0.00 0.00 84 1008.3
20260509041449 87 95 3.5 3.5 0.00 0.00 0.00 83 1008.3
20260509041349 87 106 2.6 3.5 0.00 0.00 0.00 83 1008.3
20260509041249 87 80 3.5 4.3 0.00 0.00 0.00 82 1008.4
20260509041149 87 99 4.3 4.3 0.00 0.00 0.00 82 1008.4
20260509041049 87 101 4.3 3.5 0.00 0.00 0.00 82 1008.4
20260509040949 88 89 3.5 1.7 0.00 0.00 0.00 83 1008.4
20260509040849 87 117 1.7 2.6 0.00 0.00 0.00 84 1008.4
20260509040749 87 72 2.6 1.7 0.00 0.00 0.00 83 1008.4
20260509040649 87 98 1.7 2.6 0.00 0.00 0.00 83 1008.4
20260509040549 87 147 2.6 3.5 0.00 0.00 0.00 84 1008.4
20260509040449 87 100 3.5 2.6 0.00 0.00 0.00 83 1008.4
20260509040349 87 124 3.5 3.5 0.00 0.00 0.00 83 1008.4
20260509040249 87 155 3.5 4.3 0.00 0.00 0.00 83 1008.4
20260509040149 87 144 4.3 4.3 0.00 0.00 0.00 84 1008.5
20260509040057 87 133 4.3 3.5 0.00 0.00 0.00 85 1008.5
20260509035949 87 104 3.5 1.7 0.00 0.00 0.00 85 1008.5
20260509035849 87 150 1.7 2.6 0.00 0.00 0.00 85 1008.5
20260509035749 87 142 2.6 3.5 0.00 0.00 0.00 84 1008.5
20260509035649 87 114 3.5 3.5 0.00 0.00 0.00 84 1008.5
20260509035549 87 122 3.5 2.6 0.00 0.00 0.00 85 1008.5
20260509035449 87 103 2.6 3.5 0.00 0.00 0.00 85 1008.5
20260509035349 87 61 2.6 4.3 0.00 0.00 0.00 85 1008.5
20260509035249 87 127 4.3 3.5 0.00 0.00 0.00 84 1008.6
20260509035149 87 105 3.5 0.0 0.00 0.00 0.00 85 1008.6
20260509035049 87 101 0.0 0.9 0.00 0.00 0.00 84 1008.6
20260509034949 87 58 0.9 2.6 0.00 0.00 0.00 84 1008.6
20260509034849 87 57 2.6 2.6 0.00 0.00 0.00 84 1008.6
20260509034749 87 117 2.6 2.6 0.00 0.00 0.00 85 1008.6
20260509034649 87 94 2.6 2.6 0.00 0.00 0.00 85 1008.6
20260509034553 87 155 2.6 2.6 0.00 0.00 0.00 85 1008.6
20260509034449 87 162 2.6 1.7 0.00 0.00 0.00 85 1008.7
20260509034349 87 187 3.5 4.3 0.00 0.00 0.00 85 1008.7
20260509034249 87 180 4.3 3.5 0.00 0.00 0.00 85 1008.7
20260509034149 87 171 3.5 4.3 0.00 0.00 0.00 84 1008.7
20260509034049 88 172 4.3 3.5 0.00 0.00 0.00 84 1008.7
20260509033949 88 179 3.5 2.6 0.00 0.00 0.00 85 1008.7
20260509033849 88 175 2.6 0.9 0.00 0.00 0.00 84 1008.7
20260509033749 87 102 0.9 1.7 0.00 0.00 0.00 85 1008.7
20260509033649 87 100 1.7 2.6 0.00 0.00 0.00 84 1008.8
20260509033549 87 117 2.6 0.9 0.00 0.00 0.00 84 1008.8
20260509033449 87 95 0.9 1.7 0.00 0.00 0.00 85 1008.8
20260509033349 87 164 1.7 2.6 0.00 0.00 0.00 84 1008.8
20260509033249 87 135 2.6 2.6 0.00 0.00 0.00 85 1008.8
20260509033149 87 144 2.6 0.9 0.00 0.00 0.00 86 1008.8
20260509033051 87 128 0.9 2.6 0.00 0.00 0.00 85 1008.9
20260509032949 87 163 2.6 2.6 0.00 0.00 0.00 86 1008.9
20260509032849 86 136 2.6 1.7 0.00 0.00 0.00 86 1008.9
20260509032749 86 123 1.7 2.6 0.00 0.00 0.00 85 1008.9
20260509032649 86 118 2.6 0.0 0.00 0.00 0.00 85 1008.9
20260509032549 86 129 0.0 0.9 0.00 0.00 0.00 86 1008.9
20260509032449 86 148 0.9 1.7 0.00 0.00 0.00 85 1009.0
20260509032349 86 159 2.6 0.9 0.00 0.00 0.00 85 1009.0
20260509032249 86 155 0.9 0.9 0.00 0.00 0.00 86 1009.0
20260509032149 86 190 0.9 1.7 0.00 0.00 0.00 85 1009.0
20260509032049 86 183 1.7 2.6 0.00 0.00 0.00 86 1009.0
20260509031949 86 227 2.6 1.7 0.00 0.00 0.00 87 1009.0
20260509031849 86 177 1.7 2.6 0.00 0.00 0.00 88 1009.0
20260509031748 86 167 2.6 0.9 0.00 0.00 0.00 87 1009.1
20260509031649 86 167 0.9 0.0 0.00 0.00 0.00 87 1009.1
20260509031552 86 238 0.0 0.9 0.00 0.00 0.00 88 1009.1
20260509031449 86 243 0.9 0.9 0.00 0.00 0.00 87 1009.1
20260509031348 86 201 1.7 0.9 0.00 0.00 0.00 88 1009.1
20260509031248 85 170 0.9 3.5 0.00 0.00 0.00 88 1009.1
20260509031148 85 121 3.5 3.5 0.00 0.00 0.00 88 1009.1
20260509031048 85 131 3.5 1.7 0.00 0.00 0.00 88 1009.1
20260509030948 85 136 1.7 3.5 0.00 0.00 0.00 89 1009.1
20260509030849 85 134 3.5 2.6 0.00 0.00 0.00 90 1009.1
20260509030749 85 129 2.6 2.6 0.00 0.00 0.00 89 1009.2
20260509030649 85 133 2.6 2.6 0.00 0.00 0.00 89 1009.2
20260509030549 85 142 2.6 0.0 0.00 0.00 0.00 88 1009.2
20260509030449 85 200 0.0 1.7 0.00 0.00 0.00 90 1009.2
20260509030348 85 57 0.0 0.0 0.00 0.00 0.00 90 1009.2
20260509030249 85 57 0.0 0.0 0.00 0.00 0.00 90 1009.2
20260509030148 85 57 0.0 0.0 0.00 0.00 0.00 90 1009.2
20260509030105 85 143 0.0 0.9 0.00 0.00 0.00 90 1009.2
20260509025948 85 143 0.9 0.0 0.00 0.00 0.00 91 1009.2
20260509025848 84 182 0.0 0.9 0.00 0.00 0.00 91 1009.2
20260509025748 84 182 0.9 0.9 0.00 0.00 0.00 91 1009.2
20260509025648 84 168 0.9 1.7 0.00 0.00 0.00 92 1009.3
20260509025548 84 175 1.7 2.6 0.00 0.00 0.00 91 1009.3
20260509025448 84 178 2.6 0.9 0.00 0.00 0.00 91 1009.3
20260509025349 84 181 1.7 2.6 0.00 0.00 0.00 92 1009.3
20260509025249 84 181 2.6 1.7 0.00 0.00 0.00 92 1009.3
20260509025148 84 162 1.7 1.7 0.00 0.00 0.00 92 1009.3
20260509025048 84 144 1.7 2.6 0.00 0.00 0.00 91 1009.3
20260509024948 84 153 2.6 1.7 0.00 0.00 0.00 91 1009.3
20260509024848 84 154 1.7 0.9 0.00 0.00 0.00 91 1009.3
20260509024748 84 154 0.9 2.6 0.00 0.00 0.00 91 1009.3
20260509024648 84 154 2.6 0.9 0.00 0.00 0.00 91 1009.3
20260509024550 84 190 0.9 0.9 0.00 0.00 0.00 92 1009.3
20260509024448 84 221 0.9 0.9 0.00 0.00 0.00 93 1009.4
20260509024348 84 164 0.9 1.7 0.00 0.00 0.00 93 1009.4
20260509024248 84 178 1.7 0.9 0.00 0.00 0.00 93 1009.4
20260509024148 83 192 0.9 0.9 0.00 0.00 0.00 93 1009.4
20260509024048 83 202 0.9 0.9 0.00 0.00 0.00 92 1009.4
20260509023948 83 199 0.9 0.9 0.00 0.00 0.00 92 1009.4
20260509023848 84 183 0.9 0.9 0.00 0.00 0.00 93 1009.4
20260509023748 84 172 0.9 1.7 0.00 0.00 0.00 93 1009.4
20260509023648 84 155 1.7 0.9 0.00 0.00 0.00 92 1009.5
20260509023548 84 186 0.9 1.7 0.00 0.00 0.00 93 1009.5
20260509023448 84 186 1.7 0.0 0.00 0.00 0.00 93 1009.5
20260509023348 84 167 0.0 0.0 0.00 0.00 0.00 94 1009.5
20260509023248 84 167 0.0 0.9 0.00 0.00 0.00 94 1009.5
20260509023148 84 167 0.9 0.0 0.00 0.00 0.00 95 1009.6
20260509023056 83 175 0.0 0.0 0.00 0.00 0.00 95 1009.6
20260509022948 83 177 0.0 0.0 0.00 0.00 0.00 95 1009.6
20260509022848 83 177 0.0 0.0 0.00 0.00 0.00 95 1009.6
20260509022748 83 177 0.0 0.9 0.00 0.00 0.00 94 1009.6
20260509022648 83 177 0.9 1.7 0.00 0.00 0.00 94 1009.6
20260509022548 83 177 1.7 0.0 0.00 0.00 0.00 94 1009.6
20260509022448 83 184 0.0 0.9 0.00 0.00 0.00 96 1009.7
20260509022348 83 209 0.0 0.0 0.00 0.00 0.00 96 1009.7
20260509022248 83 209 0.0 0.0 0.00 0.00 0.00 96 1009.7
20260509022148 83 209 0.0 0.0 0.00 0.00 0.00 96 1009.7
20260509022048 83 209 0.0 0.0 0.00 0.00 0.00 96 1009.7
20260509021948 83 209 0.0 0.0 0.00 0.00 0.00 96 1009.7
20260509021848 83 209 0.0 0.0 0.00 0.00 0.00 96 1009.7
20260509021748 83 194 0.0 0.0 0.00 0.00 0.00 96 1009.7
20260509021648 83 194 0.0 0.0 0.00 0.00 0.00 96 1009.7
20260509021553 83 189 0.0 0.0 0.00 0.00 0.00 97 1009.7
20260509021448 83 135 0.0 0.9 0.00 0.00 0.00 97 1009.7
20260509021348 82 135 0.9 0.9 0.00 0.00 0.00 96 1009.8
20260509021248 82 135 0.9 0.9 0.00 0.00 0.00 97 1009.8
20260509021148 82 120 0.9 0.0 0.00 0.00 0.00 97 1009.8
20260509021048 82 141 0.0 0.9 0.00 0.00 0.00 97 1009.8
20260509020948 82 147 0.9 1.7 0.00 0.00 0.00 97 1009.8
20260509020848 82 147 1.7 0.9 0.00 0.00 0.00 97 1009.8
20260509020748 82 116 0.9 0.9 0.00 0.00 0.00 97 1009.8
20260509020648 82 116 0.9 1.7 0.00 0.00 0.00 97 1009.8
20260509020548 82 140 1.7 1.7 0.00 0.00 0.00 97 1009.8
20260509020448 82 122 1.7 0.0 0.00 0.00 0.00 97 1009.8
20260509020348 82 132 1.7 0.9 0.00 0.00 0.00 97 1009.8
20260509020248 82 126 0.9 0.9 0.00 0.00 0.00 98 1009.8
20260509020148 82 93 0.9 0.9 0.00 0.00 0.00 98 1009.8
20260509020055 82 101 0.9 0.9 0.00 0.00 0.00 98 1009.8
20260509015948 82 127 0.9 0.9 0.00 0.00 0.00 98 1009.8
20260509015848 82 119 0.9 0.9 0.00 0.00 0.00 98 1009.8
20260509015748 82 113 0.9 0.0 0.00 0.00 0.00 98 1009.8
20260509015648 82 83 0.0 0.9 0.00 0.00 0.00 98 1009.8
20260509015548 82 99 0.9 0.9 0.00 0.00 0.00 98 1009.8
20260509015448 82 127 0.9 0.9 0.00 0.00 0.00 99 1009.8
20260509015348 81 141 0.9 0.0 0.00 0.00 0.00 99 1009.8
20260509015248 81 126 0.0 0.0 0.00 0.00 0.00 99 1009.8
20260509015148 81 125 0.0 0.0 0.00 0.00 0.00 98 1009.8
20260509015048 81 125 0.0 0.0 0.00 0.00 0.00 99 1009.8
20260509014948 81 125 0.0 0.0 0.00 0.00 0.00 99 1009.8
20260509014848 81 116 0.0 0.0 0.00 0.00 0.00 99 1009.8
20260509014748 81 116 0.0 0.9 0.00 0.00 0.00 99 1009.8
20260509014648 81 116 0.9 0.9 0.00 0.00 0.00 99 1009.8
20260509014602 81 116 0.9 1.7 0.00 0.00 0.00 99 1009.8
20260509014448 81 116 1.7 0.0 0.00 0.00 0.00 99 1009.8
20260509014348 81 129 0.0 1.7 0.00 0.00 0.00 99 1009.8
20260509014248 81 108 1.7 0.9 0.00 0.00 0.00 99 1009.8
20260509014148 81 100 0.9 0.9 0.00 0.00 0.00 99 1009.8
20260509014048 81 95 0.9 0.0 0.00 0.00 0.00 99 1009.8
20260509013948 81 81 0.0 0.0 0.00 0.00 0.00 99 1009.8
20260509013848 81 46 0.0 0.0 0.00 0.00 0.00 99 1009.8
20260509013748 81 46 0.0 0.0 0.00 0.00 0.00 99 1009.8
20260509013648 81 46 0.0 0.0 0.00 0.00 0.00 99 1009.8
20260509013548 81 211 0.0 0.0 0.00 0.00 0.00 99 1009.7
20260509013448 81 211 0.0 0.0 0.00 0.00 0.00 99 1009.7
20260509013348 81 211 0.0 0.0 0.00 0.00 0.00 99 1009.7
20260509013248 81 211 0.0 0.0 0.00 0.00 0.00 99 1009.7
20260509013148 81 211 0.0 0.0 0.00 0.00 0.00 99 1009.7
20260509013055 81 211 0.0 0.0 0.00 0.00 0.00 99 1009.7
20260509012948 81 211 0.0 0.0 0.00 0.00 0.00 99 1009.7
20260509012848 81 211 0.0 0.0 0.00 0.00 0.00 99 1009.7
20260509012748 81 211 0.0 0.0 0.00 0.00 0.00 99 1009.7
20260509012648 81 212 0.0 0.0 0.00 0.00 0.00 99 1009.7
20260509012548 81 214 0.0 0.0 0.00 0.00 0.00 99 1009.7
20260509012448 81 214 0.0 0.0 0.00 0.00 0.00 99 1009.7
20260509012348 80 214 0.0 0.0 0.00 0.00 0.00 99 1009.7
20260509012248 80 214 0.0 0.0 0.00 0.00 0.00 99 1009.7
20260509012148 80 214 0.0 0.0 0.00 0.00 0.00 99 1009.7
20260509012048 80 214 0.0 0.0 0.00 0.00 0.00 99 1009.7
20260509011948 80 214 0.0 0.0 0.00 0.00 0.00 99 1009.7
20260509011848 80 214 0.0 0.0 0.00 0.00 0.00 99 1009.7
20260509011748 80 214 0.0 0.0 0.00 0.00 0.00 99 1009.7
20260509011648 80 214 0.0 0.0 0.00 0.00 0.00 99 1009.7
20260509011547 80 214 0.0 0.0 0.00 0.00 0.00 99 1009.7
20260509011448 80 214 0.0 0.0 0.00 0.00 0.00 99 1009.7
20260509011348 80 214 0.0 0.0 0.00 0.00 0.00 99 1009.7
20260509011248 80 214 0.0 0.0 0.00 0.00 0.00 99 1009.7
20260509011148 80 220 0.0 0.0 0.00 0.00 0.00 99 1009.7
20260509011048 80 220 0.0 0.0 0.00 0.00 0.00 99 1009.7
20260509010948 80 220 0.0 0.0 0.00 0.00 0.00 99 1009.7
20260509010848 80 220 0.0 0.0 0.00 0.00 0.00 99 1009.7
20260509010748 79 220 0.0 0.0 0.00 0.00 0.00 99 1009.7
20260509010647 79 220 0.0 0.0 0.00 0.00 0.00 99 1009.7
20260509010547 79 221 0.0 0.0 0.00 0.00 0.00 99 1009.7
20260509010447 79 221 0.0 0.9 0.00 0.00 0.00 99 1009.7
20260509010347 79 221 0.0 0.0 0.00 0.00 0.00 99 1009.7
20260509010247 79 216 0.0 0.0 0.00 0.00 0.00 99 1009.7
20260509010147 79 215 0.0 0.9 0.00 0.00 0.00 99 1009.7
20260509010053 79 216 0.9 0.0 0.00 0.00 0.00 99 1009.7
20260509005947 79 216 0.0 0.0 0.00 0.00 0.00 99 1009.7
20260509005847 79 204 0.0 0.9 0.00 0.00 0.00 99 1009.7
20260509005747 79 197 0.9 0.9 0.00 0.00 0.00 99 1009.7
20260509005647 79 196 0.9 1.7 0.00 0.00 0.00 99 1009.7
20260509005547 79 213 1.7 0.0 0.00 0.00 0.00 99 1009.7
20260509005447 79 206 0.0 1.7 0.00 0.00 0.00 99 1009.6
20260509005347 79 219 0.9 1.7 0.00 0.00 0.00 99 1009.6
20260509005247 79 219 1.7 0.9 0.00 0.00 0.00 99 1009.6
20260509005147 79 221 0.9 2.6 0.00 0.00 0.00 99 1009.6
20260509005047 79 225 2.6 0.9 0.00 0.00 0.00 99 1009.6
20260509004947 79 213 0.9 0.9 0.00 0.00 0.00 99 1009.6
20260509004847 79 223 0.9 1.7 0.00 0.00 0.00 99 1009.6
20260509004747 79 217 1.7 1.7 0.00 0.00 0.00 99 1009.6
20260509004647 79 210 1.7 1.7 0.00 0.00 0.00 99 1009.6
20260509004547 79 202 1.7 1.7 0.00 0.00 0.00 99 1009.6
20260509004447 79 183 1.7 0.9 0.00 0.00 0.00 99 1009.6
20260509004347 79 210 1.7 1.7 0.00 0.00 0.00 99 1009.6
20260509004249 79 202 1.7 0.9 0.00 0.00 0.00 99 1009.6
20260509004147 79 195 0.9 0.9 0.00 0.00 0.00 99 1009.6
20260509004047 79 209 0.9 0.9 0.00 0.00 0.00 99 1009.6
20260509003947 79 187 0.9 1.7 0.00 0.00 0.00 99 1009.5
20260509003847 79 202 1.7 1.7 0.00 0.00 0.00 99 1009.5
20260509003747 79 207 1.7 1.7 0.00 0.00 0.00 99 1009.5
20260509003647 78 218 1.7 0.9 0.00 0.00 0.00 99 1009.5
20260509003547 78 199 0.9 0.9 0.00 0.00 0.00 99 1009.5
20260509003447 78 201 0.9 0.0 0.00 0.00 0.00 99 1009.5
20260509003347 78 216 0.9 1.7 0.00 0.00 0.00 99 1009.5
20260509003248 78 232 1.7 0.0 0.00 0.00 0.00 99 1009.4
20260509003147 78 219 0.0 0.0 0.00 0.00 0.00 99 1009.4
20260509003049 78 218 0.0 0.0 0.00 0.00 0.00 99 1009.4
20260509002947 78 218 0.0 0.0 0.00 0.00 0.00 99 1009.4
20260509002847 78 219 0.0 0.0 0.00 0.00 0.00 99 1009.4
20260509002747 78 219 0.0 0.0 0.00 0.00 0.00 99 1009.4
20260509002647 78 219 0.0 0.0 0.00 0.00 0.00 99 1009.3
20260509002547 78 219 0.0 0.9 0.00 0.00 0.00 99 1009.3
20260509002447 78 219 0.9 0.0 0.00 0.00 0.00 99 1009.3
20260509002347 78 219 0.9 0.0 0.00 0.00 0.00 99 1009.3
20260509002247 78 217 0.0 0.0 0.00 0.00 0.00 99 1009.3
20260509002147 78 197 0.0 0.0 0.00 0.00 0.00 99 1009.3
20260509002047 78 197 0.0 0.0 0.00 0.00 0.00 99 1009.3
20260509001947 78 197 0.0 0.0 0.00 0.00 0.00 99 1009.2
20260509001847 78 197 0.0 0.0 0.00 0.00 0.00 99 1009.2
20260509001747 78 197 0.0 0.0 0.00 0.00 0.00 99 1009.2
20260509001647 78 197 0.0 0.0 0.00 0.00 0.00 99 1009.2
20260509001549 78 197 0.0 0.0 0.00 0.00 0.00 99 1009.2
20260509001447 78 197 0.0 0.0 0.00 0.00 0.00 99 1009.1
20260509001347 78 197 0.0 0.9 0.00 0.00 0.00 99 1009.1
20260509001247 78 196 0.9 0.0 0.00 0.00 0.00 99 1009.1
20260509001147 78 197 0.0 0.0 0.00 0.00 0.00 99 1009.1
20260509001047 78 205 0.0 0.0 0.00 0.00 0.00 99 1009.1
20260509000947 78 205 0.0 0.0 0.00 0.00 0.00 99 1009.0
20260509000847 78 205 0.0 0.0 0.00 0.00 0.00 99 1009.0
20260509000747 78 205 0.0 0.9 0.00 0.00 0.00 99 1009.0
20260509000647 78 205 0.9 0.0 0.00 0.00 0.00 99 1009.0
20260509000547 77 195 0.0 0.9 0.00 0.00 0.00 99 1009.0
20260509000448 77 190 0.9 0.0 0.00 0.00 0.00 99 1009.0
20260509000348 77 197 0.9 0.0 0.00 0.00 0.00 99 1009.0
20260509000248 77 199 0.0 0.0 0.00 0.00 0.00 99 1008.9
20260509000147 77 200 0.0 0.0 0.00 0.00 0.00 99 1008.9
20260509000047 77 199 0.0 0.0 0.00 0.00 0.00 99 1008.9
20260508235947 77 193 0.0 0.0 0.00 0.00 0.00 99 1008.9
20260508235847 77 193 0.0 0.0 0.00 0.00 0.00 99 1008.9
20260508235747 77 193 0.0 0.0 0.00 0.00 0.00 99 1008.9
20260508235647 77 193 0.0 0.0 0.00 0.00 0.00 99 1008.9
20260508235547 77 193 0.0 0.0 0.00 0.00 0.00 99 1008.9
20260508235447 78 193 0.0 0.0 0.00 0.00 0.00 99 1008.8
20260508235347 78 193 0.0 0.0 0.00 0.00 0.00 99 1008.8
20260508235247 78 193 0.0 0.0 0.00 0.00 0.00 99 1008.8
20260508235147 78 193 0.0 0.0 0.00 0.00 0.00 99 1008.8
20260508235047 78 193 0.0 0.0 0.00 0.00 0.00 99 1008.8
20260508234947 78 193 0.0 0.0 0.00 0.00 0.00 99 1008.8
20260508234847 78 193 0.0 0.0 0.00 0.00 0.00 99 1008.8
20260508234747 78 193 0.0 0.0 0.00 0.00 0.00 99 1008.8
20260508234647 77 193 0.0 0.0 0.00 0.00 0.00 99 1008.7
20260508234547 77 193 0.0 0.0 0.00 0.00 0.00 99 1008.7
20260508234447 77 193 0.0 0.0 0.00 0.00 0.00 99 1008.7
20260508234347 77 193 0.0 0.0 0.00 0.00 0.00 99 1008.7
20260508234247 77 193 0.0 0.0 0.00 0.00 0.00 99 1008.7
20260508234147 77 193 0.0 0.0 0.00 0.00 0.00 99 1008.7
20260508234047 77 193 0.0 0.0 0.00 0.00 0.00 99 1008.7
20260508233947 77 193 0.0 0.0 0.00 0.00 0.00 99 1008.7
20260508233847 77 193 0.0 0.0 0.00 0.00 0.00 99 1008.7
20260508233747 77 193 0.0 0.0 0.00 0.00 0.00 99 1008.7
20260508233647 77 193 0.0 0.0 0.00 0.00 0.00 99 1008.6
20260508233547 77 193 0.0 0.0 0.00 0.00 0.00 99 1008.6
20260508233447 77 193 0.0 0.0 0.00 0.00 0.00 99 1008.6
20260508233347 77 193 0.0 0.0 0.00 0.00 0.00 99 1008.6
20260508233247 77 193 0.0 0.0 0.00 0.00 0.00 99 1008.6
20260508233147 77 193 0.0 0.0 0.00 0.00 0.00 99 1008.6
20260508233049 77 193 0.0 0.0 0.00 0.00 0.00 99 1008.6
20260508232947 77 193 0.0 0.0 0.00 0.00 0.00 99 1008.6
20260508232847 77 193 0.0 0.0 0.00 0.00 0.00 99 1008.6
20260508232747 77 193 0.0 0.0 0.00 0.00 0.00 99 1008.6
20260508232647 77 193 0.0 0.0 0.00 0.00 0.00 99 1008.6
20260508232547 77 193 0.0 0.0 0.00 0.00 0.00 99 1008.6
20260508232447 77 193 0.0 0.0 0.00 0.00 0.00 99 1008.6
20260508232347 77 193 0.0 0.0 0.00 0.00 0.00 99 1008.6
20260508232247 77 193 0.0 0.0 0.00 0.00 0.00 99 1008.6
20260508232147 77 193 0.0 0.0 0.00 0.00 0.00 99 1008.6
20260508232047 77 193 0.0 0.0 0.00 0.00 0.00 99 1008.5
20260508231947 77 193 0.0 0.0 0.00 0.00 0.00 99 1008.5
20260508231847 77 193 0.0 0.0 0.00 0.00 0.00 99 1008.5
20260508231747 77 193 0.0 0.0 0.00 0.00 0.00 99 1008.5
20260508231647 77 193 0.0 0.0 0.00 0.00 0.00 99 1008.5
20260508231552 77 193 0.0 0.0 0.00 0.00 0.00 99 1008.4
20260508231447 77 193 0.0 0.0 0.00 0.00 0.00 99 1008.4
20260508231347 77 193 0.0 0.0 0.00 0.00 0.00 99 1008.4
20260508231247 77 193 0.0 0.0 0.00 0.00 0.00 99 1008.4
20260508231147 77 193 0.0 0.0 0.00 0.00 0.00 99 1008.4
20260508231047 77 193 0.0 0.0 0.00 0.00 0.00 99 1008.4
20260508230947 77 193 0.0 0.0 0.00 0.00 0.00 99 1008.3
20260508230847 77 193 0.0 0.0 0.00 0.00 0.00 99 1008.3
20260508230746 77 193 0.0 0.0 0.00 0.00 0.00 99 1008.3
20260508230647 77 193 0.0 0.0 0.00 0.00 0.00 99 1008.3
20260508230547 77 193 0.0 0.0 0.00 0.00 0.00 99 1008.2
20260508230447 77 193 0.0 0.0 0.00 0.00 0.00 99 1008.2
20260508230347 77 193 0.0 0.0 0.00 0.00 0.00 99 1008.2
20260508230246 77 193 0.0 0.0 0.00 0.00 0.00 99 1008.2
20260508230146 77 193 0.0 0.0 0.00 0.00 0.00 99 1008.1
20260508230046 77 193 0.0 0.0 0.00 0.00 0.00 99 1008.1
20260508225946 77 193 0.0 0.0 0.00 0.00 0.00 99 1008.1
20260508225846 77 193 0.0 0.0 0.00 0.00 0.00 99 1008.1
20260508225747 77 193 0.0 0.0 0.00 0.00 0.00 99 1008.1
20260508225646 77 193 0.0 0.0 0.00 0.00 0.00 99 1008.0
20260508225546 77 193 0.0 0.0 0.00 0.00 0.00 99 1008.0
20260508225446 77 193 0.0 0.0 0.00 0.00 0.00 99 1008.0
20260508225346 77 193 0.0 0.0 0.00 0.00 0.00 99 1008.0
20260508225246 77 193 0.0 0.0 0.00 0.00 0.00 99 1008.0
20260508225146 77 193 0.0 0.0 0.00 0.00 0.00 99 1008.0
20260508225046 77 193 0.0 0.0 0.00 0.00 0.00 99 1008.0
20260508224946 77 193 0.0 0.0 0.00 0.00 0.00 99 1008.0
20260508224846 77 193 0.0 0.0 0.00 0.00 0.00 99 1008.0
20260508224746 77 193 0.0 0.0 0.00 0.00 0.00 99 1008.0
20260508224646 77 193 0.0 0.0 0.00 0.00 0.00 99 1008.0
20260508224546 77 193 0.0 0.0 0.00 0.00 0.00 99 1008.0
20260508224446 77 190 0.0 0.0 0.00 0.00 0.00 99 1008.0
20260508224346 77 190 0.0 0.0 0.00 0.00 0.00 99 1008.0
20260508224246 77 190 0.0 0.0 0.00 0.00 0.00 99 1008.0
20260508224146 77 190 0.0 0.0 0.00 0.00 0.00 99 1008.0
20260508224046 77 190 0.0 0.0 0.00 0.00 0.00 99 1008.0
20260508223946 77 190 0.0 0.0 0.00 0.00 0.00 99 1008.0
20260508223846 77 190 0.0 0.0 0.00 0.00 0.00 99 1008.0
20260508223746 77 190 0.0 0.0 0.00 0.00 0.00 99 1008.0
20260508223646 77 190 0.0 0.0 0.00 0.00 0.00 99 1008.0
20260508223546 77 190 0.0 0.0 0.00 0.00 0.00 99 1008.0
20260508223446 77 190 0.0 0.0 0.00 0.00 0.00 99 1008.0
20260508223346 77 190 0.0 0.0 0.00 0.00 0.00 99 1008.0
20260508223246 77 190 0.0 0.0 0.00 0.00 0.00 99 1008.0
20260508223146 77 193 0.0 0.0 0.00 0.00 0.00 99 1008.0
20260508223046 77 193 0.0 0.0 0.00 0.00 0.00 99 1008.0
20260508222946 77 193 0.0 0.0 0.00 0.00 0.00 99 1008.0
20260508222846 77 193 0.0 0.0 0.00 0.00 0.00 99 1008.0
20260508222746 77 193 0.0 0.0 0.00 0.00 0.00 99 1007.9
20260508222646 77 193 0.0 0.0 0.00 0.00 0.00 99 1007.9
20260508222546 77 193 0.0 0.0 0.00 0.00 0.00 99 1007.9
20260508222446 77 193 0.0 0.0 0.00 0.00 0.00 99 1007.9
20260508222346 77 193 0.0 0.0 0.00 0.00 0.00 99 1007.9
20260508222246 77 193 0.0 0.0 0.00 0.00 0.00 99 1007.9
20260508222146 77 193 0.0 0.0 0.00 0.00 0.00 99 1007.9
20260508222046 77 193 0.0 0.0 0.00 0.00 0.00 99 1007.9
20260508221946 77 193 0.0 0.0 0.00 0.00 0.00 99 1007.9
20260508221846 77 193 0.0 0.0 0.00 0.00 0.00 99 1007.9
20260508221746 77 193 0.0 0.0 0.00 0.00 0.00 99 1007.9
20260508221646 77 193 0.0 0.0 0.00 0.00 0.00 99 1007.9
20260508221546 77 193 0.0 0.0 0.00 0.00 0.00 99 1007.9
20260508221446 77 193 0.0 0.0 0.00 0.00 0.00 99 1007.8
20260508221346 77 193 0.0 0.0 0.00 0.00 0.00 99 1007.8
20260508221246 77 193 0.0 0.0 0.00 0.00 0.00 99 1007.8
20260508221146 77 193 0.0 0.0 0.00 0.00 0.00 99 1007.8
20260508221046 77 193 0.0 0.0 0.00 0.00 0.00 99 1007.8
20260508220946 77 193 0.0 0.0 0.00 0.00 0.00 99 1007.8
20260508220846 77 193 0.0 0.0 0.00 0.00 0.00 99 1007.8
20260508220746 77 193 0.0 0.0 0.00 0.00 0.00 99 1007.7
20260508220646 77 193 0.0 0.0 0.00 0.00 0.00 99 1007.7
20260508220546 77 193 0.0 0.0 0.00 0.00 0.00 99 1007.7
20260508220446 77 193 0.0 0.0 0.00 0.00 0.00 99 1007.7
20260508220346 77 193 0.0 0.0 0.00 0.00 0.00 99 1007.6
20260508220246 77 193 0.0 0.0 0.00 0.00 0.00 99 1007.6
20260508220146 77 193 0.0 0.0 0.00 0.00 0.00 99 1007.6
20260508220046 77 193 0.0 0.0 0.00 0.00 0.00 99 1007.5
20260508215946 77 193 0.0 0.0 0.00 0.00 0.00 99 1007.5
20260508215846 77 193 0.0 0.0 0.00 0.00 0.00 99 1007.5
20260508215746 77 193 0.0 0.0 0.00 0.00 0.00 99 1007.4
20260508215646 77 193 0.0 0.0 0.00 0.00 0.00 99 1007.4
20260508215546 77 193 0.0 0.0 0.00 0.00 0.00 99 1007.4
20260508215446 77 193 0.0 0.0 0.00 0.00 0.00 99 1007.3
20260508215346 77 193 0.0 0.0 0.00 0.00 0.00 99 1007.3
20260508215246 77 193 0.0 0.0 0.00 0.00 0.00 99 1007.3
20260508215146 77 193 0.0 0.0 0.00 0.00 0.00 99 1007.3
20260508215046 77 193 0.0 0.0 0.00 0.00 0.00 99 1007.2
20260508214946 77 193 0.0 0.0 0.00 0.00 0.00 99 1007.2
20260508214846 77 193 0.0 0.0 0.00 0.00 0.00 99 1007.2
20260508214746 77 193 0.0 0.0 0.00 0.00 0.00 99 1007.2
20260508214646 77 193 0.0 0.0 0.00 0.00 0.00 99 1007.2
20260508214546 77 193 0.0 0.0 0.00 0.00 0.00 99 1007.2
20260508214446 77 193 0.0 0.0 0.00 0.00 0.00 99 1007.1
20260508214346 77 193 0.0 0.0 0.00 0.00 0.00 99 1007.1
20260508214246 77 193 0.0 0.0 0.00 0.00 0.00 99 1007.1
20260508214146 77 193 0.0 0.9 0.00 0.00 0.00 99 1007.1
20260508214046 77 193 0.9 1.7 0.00 0.00 0.00 99 1007.1
20260508213946 77 193 1.7 0.0 0.00 0.00 0.00 99 1007.1
20260508213846 78 193 0.0 0.0 0.00 0.00 0.00 99 1007.1
20260508213746 78 211 0.0 0.0 0.00 0.00 0.00 99 1007.1
20260508213646 78 247 0.0 0.0 0.00 0.00 0.00 99 1007.1
20260508213548 78 253 0.0 0.0 0.00 0.00 0.00 99 1007.2
20260508213446 78 253 0.0 0.0 0.00 0.00 0.00 99 1007.2
20260508213346 78 253 0.0 0.0 0.00 0.00 0.00 99 1007.2
20260508213246 78 253 0.0 0.0 0.00 0.00 0.00 99 1007.2
20260508213148 78 253 0.0 0.0 0.00 0.00 0.00 99 1007.2
20260508212946 78 253 0.0 0.0 0.00 0.00 0.00 99 1007.2
20260508212846 78 253 0.0 0.0 0.00 0.00 0.00 99 1007.3
20260508212746 78 253 0.0 0.0 0.00 0.00 0.00 99 1007.3
20260508212646 78 253 0.0 0.0 0.00 0.00 0.00 99 1007.3
20260508212546 78 253 0.0 0.0 0.00 0.00 0.00 99 1007.3
20260508212446 78 253 0.0 0.0 0.00 0.00 0.00 99 1007.3
20260508212346 78 253 0.0 0.0 0.00 0.00 0.00 99 1007.3
20260508212246 78 253 0.0 0.0 0.00 0.00 0.00 99 1007.3
20260508212146 78 253 0.0 0.0 0.00 0.00 0.00 99 1007.3
20260508212046 78 253 0.0 0.0 0.00 0.00 0.00 99 1007.3
20260508211946 78 253 0.0 0.0 0.00 0.00 0.00 99 1007.3
20260508211846 78 253 0.0 0.0 0.00 0.00 0.00 99 1007.3
20260508211746 78 253 0.0 0.0 0.00 0.00 0.00 99 1007.3
20260508211646 78 251 0.0 0.0 0.00 0.00 0.00 99 1007.4
20260508211546 78 240 0.0 0.0 0.00 0.00 0.00 99 1007.4
20260508211445 78 240 0.0 0.9 0.00 0.00 0.00 99 1007.3
20260508211345 78 238 0.0 0.9 0.00 0.00 0.00 99 1007.3
20260508211245 78 238 0.9 0.9 0.00 0.00 0.00 99 1007.3
20260508211145 78 238 0.9 0.0 0.00 0.00 0.00 99 1007.3
20260508211045 78 217 0.0 0.0 0.00 0.00 0.00 99 1007.3
20260508210945 78 214 0.0 0.0 0.00 0.00 0.00 99 1007.3
20260508210846 78 205 0.0 0.0 0.00 0.00 0.00 99 1007.3
20260508210746 78 184 0.0 0.9 0.00 0.00 0.00 99 1007.3
20260508210645 78 178 0.9 0.9 0.00 0.00 0.00 99 1007.3
20260508210546 78 176 0.9 1.7 0.00 0.00 0.00 99 1007.3
20260508210445 78 188 1.7 0.9 0.00 0.00 0.00 99 1007.3
20260508210345 78 173 1.7 1.7 0.00 0.00 0.00 99 1007.3
20260508210245 78 172 1.7 0.0 0.00 0.00 0.00 99 1007.3
20260508210145 78 166 0.0 0.0 0.00 0.00 0.00 99 1007.3
20260508210045 78 194 0.0 0.0 0.00 0.00 0.00 99 1007.3
20260508205945 78 201 0.0 0.0 0.00 0.00 0.00 99 1007.3
20260508205845 78 226 0.0 0.0 0.00 0.00 0.00 99 1007.3
20260508205745 78 245 0.0 0.0 0.00 0.00 0.00 99 1007.3
20260508205645 78 264 0.0 0.0 0.00 0.00 0.00 99 1007.3
20260508205546 78 265 0.0 0.0 0.00 0.00 0.00 99 1007.2
20260508205445 78 267 0.0 0.0 0.00 0.00 0.00 99 1007.2
20260508205345 78 267 0.0 0.9 0.00 0.00 0.00 99 1007.2
20260508205245 78 267 0.9 1.7 0.00 0.00 0.00 99 1007.2
20260508205145 78 267 1.7 1.7 0.00 0.00 0.00 99 1007.2
20260508205045 78 267 1.7 0.0 0.00 0.00 0.00 99 1007.2
20260508204945 78 266 0.0 0.0 0.00 0.00 0.00 99 1007.2
20260508204845 78 249 0.0 0.0 0.00 0.00 0.00 99 1007.2
20260508204745 78 249 0.0 0.0 0.00 0.00 0.00 99 1007.2
20260508204645 78 249 0.0 0.0 0.00 0.00 0.00 99 1007.2
20260508204545 78 249 0.0 0.0 0.00 0.00 0.00 99 1007.2
20260508204445 78 249 0.0 0.0 0.00 0.00 0.00 99 1007.2
20260508204345 78 249 0.0 0.0 0.00 0.00 0.00 99 1007.2
20260508204245 78 249 0.0 0.0 0.00 0.00 0.00 99 1007.2
20260508204145 78 249 0.0 0.0 0.00 0.00 0.00 99 1007.2
20260508204047 78 249 0.0 0.0 0.00 0.00 0.00 99 1007.2
20260508203945 78 251 0.0 0.0 0.00 0.00 0.00 99 1007.2
20260508203845 78 265 0.0 0.0 0.00 0.00 0.00 99 1007.2
20260508203745 78 248 0.0 0.0 0.00 0.00 0.00 99 1007.2
20260508203651 78 246 0.0 0.0 0.00 0.00 0.00 99 1007.2
20260508203545 78 245 0.0 0.0 0.00 0.00 0.00 99 1007.3
20260508203445 78 243 0.0 0.0 0.00 0.00 0.00 99 1007.3
20260508203345 78 213 0.0 0.0 0.00 0.00 0.00 99 1007.3
20260508203245 78 210 0.0 0.0 0.00 0.00 0.00 99 1007.2
20260508203145 78 210 0.0 0.0 0.00 0.00 0.00 99 1007.2
20260508203045 78 210 0.0 0.0 0.00 0.00 0.00 99 1007.2
20260508202945 78 210 0.0 0.0 0.00 0.00 0.00 99 1007.2
20260508202845 78 210 0.0 0.0 0.00 0.00 0.00 99 1007.2
20260508202745 78 176 0.0 0.0 0.00 0.00 0.00 99 1007.2
20260508202645 78 176 0.0 0.0 0.00 0.00 0.00 99 1007.3
20260508202545 78 176 0.0 0.0 0.00 0.00 0.00 99 1007.3
20260508202445 78 176 0.0 0.0 0.00 0.00 0.00 99 1007.3
20260508202345 78 176 0.0 0.0 0.00 0.00 0.00 99 1007.3
20260508202245 78 176 0.0 0.0 0.00 0.00 0.00 99 1007.3
20260508202145 79 176 0.0 0.0 0.00 0.00 0.00 99 1007.3
20260508202045 78 176 0.0 0.0 0.00 0.00 0.00 99 1007.4
20260508201945 79 176 0.0 0.0 0.00 0.00 0.00 99 1007.4
20260508201847 79 176 0.0 0.0 0.00 0.00 0.00 99 1007.4
20260508201747 79 176 0.0 0.0 0.00 0.00 0.00 99 1007.4
20260508201645 79 176 0.0 0.0 0.00 0.00 0.00 99 1007.4
20260508201545 79 176 0.0 0.0 0.00 0.00 0.00 99 1007.4
20260508201447 78 176 0.0 0.0 0.00 0.00 0.00 99 1007.4
20260508201345 79 176 0.0 0.0 0.00 0.00 0.00 99 1007.4
20260508201245 79 176 0.0 0.0 0.00 0.00 0.00 99 1007.4
20260508201145 79 176 0.0 0.0 0.00 0.00 0.00 99 1007.4
20260508201045 79 176 0.0 0.0 0.00 0.00 0.00 99 1007.4
20260508200945 79 176 0.0 0.0 0.00 0.00 0.00 99 1007.4
20260508200845 79 176 0.0 0.0 0.00 0.00 0.00 99 1007.4
20260508200745 79 176 0.0 0.0 0.00 0.00 0.00 99 1007.4
20260508200647 79 176 0.0 0.0 0.00 0.00 0.00 99 1007.4
20260508200545 79 187 0.0 0.0 0.00 0.00 0.00 99 1007.4
20260508200445 79 188 0.0 0.9 0.00 0.00 0.00 99 1007.4
20260508200345 79 177 0.0 0.9 0.00 0.00 0.00 99 1007.4
20260508200245 79 170 0.9 0.0 0.00 0.00 0.00 99 1007.4
20260508200145 79 176 0.0 0.0 0.00 0.00 0.00 99 1007.4
20260508200045 79 176 0.0 0.0 0.00 0.00 0.00 99 1007.5
20260508195945 79 176 0.0 0.0 0.00 0.00 0.00 99 1007.5
20260508195845 79 176 0.0 0.0 0.00 0.00 0.00 99 1007.5
20260508195745 79 176 0.0 0.0 0.00 0.00 0.00 99 1007.5
20260508195645 79 176 0.0 0.0 0.00 0.00 0.00 99 1007.5
20260508195545 79 176 0.0 0.0 0.00 0.00 0.00 99 1007.5
20260508195445 79 176 0.0 1.7 0.00 0.00 0.00 99 1007.5
20260508195345 79 179 0.9 0.9 0.00 0.00 0.00 99 1007.5
20260508195245 79 177 0.9 0.9 0.00 0.00 0.00 99 1007.5
20260508195145 79 190 0.9 0.9 0.00 0.00 0.00 99 1007.5
20260508195045 79 188 0.9 0.9 0.00 0.00 0.00 99 1007.5
20260508194945 79 186 0.9 0.9 0.00 0.00 0.00 99 1007.5
20260508194845 79 182 0.9 0.0 0.00 0.00 0.00 99 1007.5
20260508194745 79 192 0.0 0.0 0.00 0.00 0.00 99 1007.6
20260508194645 79 192 0.0 0.0 0.00 0.00 0.00 99 1007.6
20260508194545 79 182 0.0 0.9 0.00 0.00 0.00 99 1007.6
20260508194445 79 182 0.9 3.5 0.00 0.00 0.00 99 1007.6
20260508194345 79 168 0.9 0.9 0.00 0.00 0.00 99 1007.6
20260508194245 79 169 0.9 1.7 0.00 0.00 0.00 99 1007.6
20260508194145 79 171 1.7 1.7 0.00 0.00 0.00 99 1007.6
20260508194045 79 190 1.7 2.6 0.00 0.00 0.00 99 1007.7
20260508193945 79 174 2.6 4.3 0.00 0.00 0.00 99 1007.7
20260508193845 79 180 4.3 3.5 0.00 0.00 0.00 99 1007.7
20260508193745 79 175 3.5 2.6 0.00 0.00 0.00 99 1007.7
20260508193645 79 175 2.6 2.6 0.00 0.00 0.00 99 1007.7
20260508193545 79 175 2.6 3.5 0.00 0.00 0.00 99 1007.8
20260508193445 79 174 3.5 1.7 0.00 0.00 0.00 99 1007.8
20260508193345 79 173 2.6 3.5 0.00 0.00 0.00 99 1007.8
20260508193245 79 170 3.5 3.5 0.00 0.00 0.00 99 1007.8
20260508193145 79 178 3.5 4.3 0.00 0.00 0.00 99 1007.8
20260508193047 79 165 4.3 2.6 0.00 0.00 0.00 99 1007.8
20260508192945 79 165 2.6 3.5 0.00 0.00 0.00 99 1007.8
20260508192845 79 165 3.5 3.5 0.00 0.00 0.00 99 1007.8
20260508192745 79 171 3.5 3.5 0.00 0.00 0.00 99 1007.8
20260508192645 79 166 3.5 3.5 0.00 0.00 0.00 99 1007.8
20260508192545 79 166 3.5 2.6 0.00 0.00 0.00 99 1007.8
20260508192445 79 157 2.6 1.7 0.00 0.00 0.00 99 1007.8
20260508192345 79 163 0.9 0.0 0.00 0.00 0.00 99 1007.8
20260508192245 79 174 0.0 1.7 0.00 0.00 0.00 99 1007.8
20260508192145 79 174 1.7 0.9 0.00 0.00 0.00 99 1007.8
20260508192045 79 164 0.9 1.7 0.00 0.00 0.00 99 1007.8
20260508191945 79 190 1.7 2.6 0.00 0.00 0.00 99 1007.8
20260508191845 79 176 2.6 3.5 0.00 0.00 0.00 99 1007.8
20260508191745 79 172 3.5 2.6 0.00 0.00 0.00 99 1007.8
20260508191645 79 178 2.6 0.9 0.00 0.00 0.00 99 1007.8
20260508191545 79 165 0.9 0.9 0.00 0.00 0.00 99 1007.8
20260508191444 79 175 0.9 2.6 0.00 0.00 0.00 99 1007.8
20260508191344 79 166 1.7 2.6 0.00 0.00 0.00 99 1007.8
20260508191245 79 180 2.6 0.9 0.00 0.00 0.00 99 1007.8
20260508191145 79 200 0.9 0.9 0.00 0.00 0.00 99 1007.8
20260508191045 79 215 0.9 1.7 0.00 0.00 0.00 99 1007.8
20260508190945 79 216 1.7 3.5 0.00 0.00 0.00 99 1007.8
20260508190845 79 179 3.5 3.5 0.00 0.00 0.00 99 1007.9
20260508190744 79 202 3.5 0.9 0.00 0.00 0.00 99 1007.9
20260508190645 79 197 0.9 1.7 0.00 0.00 0.00 99 1007.9
20260508190544 79 206 1.7 0.9 0.00 0.00 0.00 99 1007.9
20260508190444 79 218 0.9 4.3 0.00 0.00 0.00 99 1007.9
20260508190344 79 195 1.7 1.7 0.00 0.00 0.00 99 1007.9
20260508190244 79 221 1.7 1.7 0.00 0.00 0.00 99 1007.9
20260508190144 79 203 1.7 1.7 0.00 0.00 0.00 99 1007.9
20260508190045 79 194 1.7 2.6 0.00 0.00 0.00 99 1007.9
20260508185944 79 196 2.6 3.5 0.00 0.00 0.00 99 1007.9
20260508185844 80 190 3.5 3.5 0.00 0.00 0.00 99 1007.9
20260508185744 80 189 3.5 4.3 0.00 0.00 0.00 99 1007.9
20260508185644 80 188 4.3 3.5 0.00 0.00 0.00 99 1007.9
20260508185544 80 186 3.5 2.6 0.00 0.00 0.00 99 1007.9
20260508185444 80 188 2.6 3.5 0.00 0.00 0.00 99 1007.9
20260508185344 80 185 3.5 5.2 0.00 0.00 0.00 99 1007.9
20260508185244 80 182 5.2 5.2 0.00 0.00 0.00 99 1007.9
20260508185144 80 181 5.2 4.3 0.00 0.00 0.00 99 1007.9
20260508185044 80 157 4.3 5.2 0.00 0.00 0.00 99 1008.0
20260508184944 80 169 5.2 3.5 0.00 0.00 0.00 99 1008.0
20260508184844 80 159 3.5 4.3 0.00 0.00 0.00 99 1008.0
20260508184744 80 155 4.3 5.2 0.00 0.00 0.00 99 1008.0
20260508184644 80 172 5.2 4.3 0.00 0.00 0.00 99 1008.0
20260508184544 80 173 4.3 5.2 0.00 0.00 0.00 99 1008.0
20260508184444 80 172 5.2 2.6 0.00 0.00 0.00 99 1008.0
20260508184344 80 171 2.6 1.7 0.00 0.00 0.00 99 1008.0
20260508184244 80 164 1.7 1.7 0.00 0.00 0.00 99 1008.0
20260508184144 80 174 1.7 2.6 0.00 0.00 0.00 99 1008.0
20260508184044 80 147 2.6 3.5 0.00 0.00 0.00 99 1008.1
20260508183944 80 149 3.5 4.3 0.00 0.00 0.00 99 1008.1
20260508183844 80 127 4.3 3.5 0.00 0.00 0.00 99 1008.1
20260508183744 80 143 3.5 4.3 0.00 0.00 0.00 99 1008.1
20260508183644 80 159 4.3 3.5 0.00 0.00 0.00 99 1008.1
20260508183544 80 172 3.5 3.5 0.00 0.00 0.00 99 1008.1
20260508183444 80 175 3.5 0.9 0.00 0.00 0.00 99 1008.1
20260508183344 80 169 4.3 4.3 0.00 0.00 0.00 99 1008.1
20260508183244 80 180 4.3 3.5 0.00 0.00 0.00 99 1008.2
20260508183144 79 187 3.5 2.6 0.00 0.00 0.00 99 1008.2
20260508183044 79 179 2.6 1.7 0.00 0.00 0.00 99 1008.2
20260508182944 79 180 1.7 0.0 0.00 0.00 0.00 99 1008.2
20260508182844 80 182 0.0 0.9 0.00 0.00 0.00 99 1008.2
20260508182744 80 179 0.9 0.0 0.00 0.00 0.00 99 1008.2
20260508182644 80 182 0.0 0.9 0.00 0.00 0.00 99 1008.2
20260508182544 80 172 0.9 1.7 0.00 0.00 0.00 99 1008.2
20260508182444 80 172 1.7 0.9 0.00 0.00 0.00 99 1008.2
20260508182344 80 195 0.0 0.9 0.00 0.00 0.00 99 1008.1
20260508182244 80 193 0.9 0.9 0.00 0.00 0.00 99 1008.2
20260508182144 80 193 0.9 0.0 0.00 0.00 0.00 99 1008.2
20260508182044 80 203 0.0 0.0 0.00 0.00 0.00 99 1008.2
20260508181944 80 200 0.0 1.7 0.00 0.00 0.00 99 1008.2
20260508181844 80 212 1.7 0.0 0.00 0.00 0.00 99 1008.2
20260508181744 80 201 0.0 1.7 0.00 0.00 0.00 99 1008.2
20260508181644 80 221 1.7 0.0 0.00 0.00 0.00 99 1008.2
20260508181544 80 190 0.0 0.0 0.00 0.00 0.00 99 1008.2
20260508181444 80 206 0.0 1.7 0.00 0.00 0.00 99 1008.2
20260508181344 80 206 0.0 0.0 0.00 0.00 0.00 99 1008.2
20260508181244 80 206 0.0 0.0 0.00 0.00 0.00 99 1008.2
20260508181144 80 207 0.0 0.9 0.00 0.00 0.00 99 1008.2
20260508181044 80 207 0.9 1.7 0.00 0.00 0.00 99 1008.2
20260508180944 80 195 1.7 1.7 0.00 0.00 0.00 99 1008.2
20260508180844 80 188 1.7 1.7 0.00 0.00 0.00 99 1008.2
20260508180744 80 192 1.7 1.7 0.00 0.00 0.00 99 1008.2
20260508180544 80 214 1.7 1.7 0.00 0.00 0.00 99 1008.2
20260508180444 80 200 1.7 0.9 0.00 0.00 0.00 99 1008.2
20260508180344 80 186 1.7 1.7 0.00 0.00 0.00 99 1008.2
20260508180244 80 180 1.7 2.6 0.00 0.00 0.00 99 1008.3
20260508180144 80 197 2.6 2.6 0.00 0.00 0.00 99 1008.3
20260508180046 80 184 2.6 1.7 0.00 0.00 0.00 99 1008.3
20260508175944 80 175 1.7 2.6 0.00 0.00 0.00 99 1008.3
20260508175844 80 201 2.6 2.6 0.00 0.00 0.00 99 1008.3
20260508175744 80 211 2.6 1.7 0.00 0.00 0.00 99 1008.3
20260508175646 80 215 1.7 1.7 0.00 0.00 0.00 99 1008.3
20260508175544 80 203 1.7 0.9 0.00 0.00 0.00 99 1008.3
20260508175444 80 197 0.9 1.7 0.00 0.00 0.00 99 1008.3
20260508175344 80 194 0.9 0.9 0.00 0.00 0.00 99 1008.3
20260508175244 80 204 0.9 0.0 0.00 0.00 0.00 99 1008.3
20260508175144 80 249 0.0 0.0 0.00 0.00 0.00 99 1008.3
20260508175044 80 270 0.0 0.0 0.00 0.00 0.00 99 1008.4
20260508174944 80 270 0.0 0.9 0.00 0.00 0.00 99 1008.4
20260508174844 80 270 0.9 0.9 0.00 0.00 0.00 99 1008.4
20260508174744 80 276 0.9 0.9 0.00 0.00 0.00 99 1008.4
20260508174644 80 276 0.9 0.9 0.00 0.00 0.00 99 1008.4
20260508174548 80 276 0.9 1.7 0.00 0.00 0.00 99 1008.4
20260508174444 80 276 1.7 0.0 0.00 0.00 0.00 99 1008.5
20260508174344 80 276 1.7 1.7 0.00 0.00 0.00 99 1008.5
20260508174244 80 276 1.7 1.7 0.00 0.00 0.00 99 1008.5
20260508174144 80 276 1.7 1.7 0.00 0.00 0.00 99 1008.5
20260508174044 80 279 1.7 1.7 0.00 0.00 0.00 99 1008.6
20260508173944 80 282 1.7 0.9 0.00 0.00 0.00 99 1008.6
20260508173844 80 282 0.9 0.9 0.00 0.00 0.00 99 1008.6
20260508173744 80 283 0.9 0.0 0.00 0.00 0.00 99 1008.6
20260508173644 80 283 0.0 0.0 0.00 0.00 0.00 99 1008.6
20260508173544 80 283 0.0 0.0 0.00 0.00 0.00 99 1008.6
20260508173444 80 283 0.0 0.0 0.00 0.00 0.00 99 1008.6
20260508173344 80 283 0.0 0.0 0.00 0.00 0.00 99 1008.6
20260508173244 80 283 0.0 0.0 0.00 0.00 0.00 99 1008.6
20260508173144 80 283 0.0 0.0 0.00 0.00 0.00 99 1008.7
20260508173045 80 283 0.0 0.0 0.00 0.00 0.00 99 1008.7
20260508172944 80 283 0.0 0.0 0.00 0.00 0.00 99 1008.7
20260508172844 80 285 0.0 0.0 0.00 0.00 0.00 99 1008.7
20260508172744 80 285 0.0 0.0 0.00 0.00 0.00 99 1008.7
20260508172644 80 285 0.0 0.0 0.00 0.00 0.00 99 1008.7
20260508172544 80 285 0.0 0.0 0.00 0.00 0.00 99 1008.7
20260508172444 80 286 0.0 0.0 0.00 0.00 0.00 99 1008.7
20260508172344 80 286 0.0 0.0 0.00 0.00 0.00 99 1008.7
20260508172244 80 286 0.0 0.0 0.00 0.00 0.00 99 1008.7
20260508172144 80 286 0.0 0.0 0.00 0.00 0.00 99 1008.7
20260508172044 80 286 0.0 0.0 0.00 0.00 0.00 99 1008.7
20260508171944 80 286 0.0 0.0 0.00 0.00 0.00 99 1008.8
20260508171844 80 286 0.0 0.0 0.00 0.00 0.00 99 1008.8
20260508171744 80 286 0.0 0.0 0.00 0.00 0.00 99 1008.8
20260508171644 80 286 0.0 0.0 0.00 0.00 0.00 99 1008.8
20260508171557 80 286 0.0 0.0 0.00 0.00 0.00 99 1008.8
20260508171444 80 286 0.0 0.9 0.00 0.00 0.00 99 1008.8
20260508171344 80 286 0.9 0.9 0.00 0.00 0.00 99 1008.8
20260508171244 80 286 0.9 0.9 0.00 0.00 0.00 99 1008.8
20260508171144 80 285 0.9 0.0 0.00 0.00 0.00 99 1008.9
20260508171043 80 285 0.0 0.0 0.00 0.00 0.00 99 1008.9
20260508170944 80 266 0.0 0.0 0.00 0.00 0.00 99 1008.9
20260508170844 80 266 0.0 0.0 0.00 0.00 0.00 99 1008.9
20260508170744 80 266 0.0 0.0 0.00 0.00 0.00 99 1008.9
20260508170644 80 266 0.0 0.0 0.00 0.00 0.00 99 1008.9
20260508170543 80 266 0.0 0.0 0.00 0.00 0.00 99 1008.9
20260508170444 80 266 0.0 0.0 0.00 0.00 0.00 99 1008.9
20260508170344 80 266 0.9 0.9 0.00 0.00 0.00 99 1008.9
20260508170244 80 266 0.9 0.9 0.00 0.00 0.00 99 1008.9
20260508170143 80 265 0.9 0.9 0.00 0.00 0.00 99 1008.9
20260508170046 80 265 0.9 1.7 0.00 0.00 0.00 99 1008.9
20260508165943 80 265 1.7 1.7 0.00 0.00 0.00 99 1008.9
20260508165843 80 265 1.7 0.9 0.00 0.00 0.00 99 1008.9
20260508165743 80 265 0.9 0.9 0.00 0.00 0.00 99 1008.9
20260508165643 80 265 0.9 0.0 0.00 0.00 0.00 99 1008.9
20260508165543 80 265 0.0 0.0 0.00 0.00 0.00 99 1008.9
20260508164825 81 261 0.0 0.0 0.00 0.00 0.00 99 1008.9
20260508164723 81 233 0.0 0.0 0.00 0.00 0.00 99 1008.9
20260508164623 81 233 0.0 0.0 0.00 0.00 0.00 99 1008.9
20260508164523 81 233 0.0 0.0 0.00 0.00 0.00 99 1008.9
20260508164423 81 234 0.0 0.0 0.00 0.00 0.00 99 1008.9
20260508164323 81 234 0.0 0.0 0.00 0.00 0.00 99 1008.9
20260508164223 81 234 0.0 0.0 0.00 0.00 0.00 99 1008.9
20260508164123 81 234 0.0 0.0 0.00 0.00 0.00 99 1009.0
20260508164023 81 233 0.0 0.0 0.00 0.00 0.00 99 1009.0
20260508163923 81 233 0.0 0.0 0.00 0.00 0.00 99 1009.0
20260508163823 81 233 0.0 0.0 0.00 0.00 0.00 99 1009.0